Time,TemperatureF,DewpointF,PressureIn,WindDirection,WindDirectionDegrees,WindSpeedMPH,WindSpeedGustMPH,Humidity,HourlyPrecipIn,Conditions,Clouds,dailyrainin,SoftwareType,DateUTC
2013-05-25 00:00:00,80.0,78.0,30.01,SE,135,16.0,18.0,95,0.00,,,0.00,TxWx,2013-05-25 05:00:00,
2013-05-25 00:02:00,80.0,78.0,30.01,SE,135,9.0,13.0,95,0.00,,,0.00,TxWx,2013-05-25 05:02:00,
2013-05-25 00:04:00,80.0,78.0,30.01,SE,135,7.0,9.0,95,0.00,,,0.00,TxWx,2013-05-25 05:04:00,
2013-05-25 00:06:00,80.0,78.0,30.01,SE,135,11.0,13.0,95,0.00,,,0.00,TxWx,2013-05-25 05:06:00,
2013-05-25 00:07:00,80.0,78.0,30.01,SE,135,7.0,10.0,95,0.00,,,0.00,TxWx,2013-05-25 05:07:00,
2013-05-25 00:08:00,80.0,78.0,30.01,SE,135,10.0,10.0,95,0.00,,,0.00,TxWx,2013-05-25 05:08:00,
2013-05-25 00:11:00,80.0,78.0,30.02,SE,135,15.0,15.0,95,0.00,,,0.00,TxWx,2013-05-25 05:11:00,
2013-05-25 00:12:00,80.0,78.0,30.01,SE,135,18.0,18.0,95,0.00,,,0.00,TxWx,2013-05-25 05:12:00,
2013-05-25 00:14:00,80.0,78.0,30.01,SE,135,6.0,8.0,94,0.00,,,0.00,TxWx,2013-05-25 05:14:00,
2013-05-25 00:15:00,80.0,78.0,30.02,SSE,157,13.0,13.0,94,0.00,,,0.00,TxWx,2013-05-25 05:15:00,
2013-05-25 00:17:00,80.0,78.0,30.02,SE,135,12.0,13.0,94,0.00,,,0.00,TxWx,2013-05-25 05:17:00,
2013-05-25 00:19:00,80.0,78.0,30.01,SE,135,10.0,11.0,95,0.00,,,0.00,TxWx,2013-05-25 05:19:00,
2013-05-25 00:20:00,80.0,78.0,30.02,SSE,157,13.0,13.0,95,0.00,,,0.00,TxWx,2013-05-25 05:20:00,
2013-05-25 00:22:00,80.0,78.0,30.02,SSE,157,11.0,11.0,94,0.00,,,0.00,TxWx,2013-05-25 05:22:00,
2013-05-25 00:23:00,80.0,78.0,30.02,SE,135,9.0,9.0,94,0.00,,,0.00,TxWx,2013-05-25 05:23:00,
2013-05-25 00:24:00,80.0,78.0,30.02,SE,135,14.0,14.0,94,0.00,,,0.00,TxWx,2013-05-25 05:24:00,
2013-05-25 00:26:00,80.0,78.0,30.01,SE,135,11.0,11.0,95,0.00,,,0.00,TxWx,2013-05-25 05:26:00,
2013-05-25 00:27:00,80.0,78.0,30.02,SE,135,7.0,8.0,95,0.00,,,0.00,TxWx,2013-05-25 05:27:00,
2013-05-25 00:28:00,80.0,78.0,30.02,ESE,112,14.0,14.0,95,0.00,,,0.00,TxWx,2013-05-25 05:28:00,
2013-05-25 00:29:00,80.0,78.0,30.02,SE,135,10.0,12.0,95,0.00,,,0.00,TxWx,2013-05-25 05:29:00,
2013-05-25 00:31:00,80.0,78.0,30.02,South,180,8.0,8.0,95,0.00,,,0.00,TxWx,2013-05-25 05:31:00,
2013-05-25 00:34:00,80.0,78.0,30.02,SSE,157,5.0,7.0,95,0.00,,,0.00,TxWx,2013-05-25 05:34:00,
2013-05-25 00:35:00,80.0,78.0,30.02,SE,135,12.0,12.0,95,0.00,,,0.00,TxWx,2013-05-25 05:35:00,
2013-05-25 00:36:00,80.0,78.0,30.02,SE,135,11.0,11.0,95,0.00,,,0.00,TxWx,2013-05-25 05:36:00,
2013-05-25 00:38:00,80.0,78.0,30.02,SE,135,11.0,11.0,95,0.00,,,0.00,TxWx,2013-05-25 05:38:00,
2013-05-25 00:40:00,80.0,78.0,30.02,SE,135,8.0,10.0,95,0.00,,,0.00,TxWx,2013-05-25 05:40:00,
2013-05-25 00:41:00,80.0,78.0,30.02,SE,135,6.0,7.0,95,0.00,,,0.00,TxWx,2013-05-25 05:41:00,
2013-05-25 00:43:00,80.0,78.0,30.02,ESE,112,16.0,16.0,95,0.00,,,0.00,TxWx,2013-05-25 05:43:00,
2013-05-25 00:46:00,80.0,78.0,30.02,SE,135,6.0,6.0,95,0.00,,,0.00,TxWx,2013-05-25 05:46:00,
2013-05-25 00:48:00,80.0,78.0,30.02,SSE,157,7.0,8.0,95,0.00,,,0.00,TxWx,2013-05-25 05:48:00,
2013-05-25 00:49:00,80.0,78.0,30.02,SE,135,9.0,9.0,95,0.00,,,0.00,TxWx,2013-05-25 05:49:00,
2013-05-25 00:50:00,80.0,78.0,30.02,SSE,157,11.0,11.0,95,0.00,,,0.00,TxWx,2013-05-25 05:50:00,
2013-05-25 00:54:00,80.0,78.0,30.02,South,180,10.0,10.0,95,0.00,,,0.00,TxWx,2013-05-25 05:54:00,
2013-05-25 00:55:00,80.0,78.0,30.02,SE,135,10.0,13.0,95,0.00,,,0.00,TxWx,2013-05-25 05:55:00,
2013-05-25 00:56:00,80.0,78.0,30.02,SE,135,9.0,9.0,95,0.00,,,0.00,TxWx,2013-05-25 05:56:00,
2013-05-25 00:57:00,80.0,78.0,30.02,ESE,112,6.0,9.0,95,0.00,,,0.00,TxWx,2013-05-25 05:57:00,
2013-05-25 00:59:00,80.0,78.0,30.02,SE,135,15.0,16.0,95,0.00,,,0.00,TxWx,2013-05-25 05:59:00,
2013-05-25 01:01:00,80.0,78.0,30.03,SE,135,14.0,14.0,95,0.00,,,0.00,TxWx,2013-05-25 06:01:00,
2013-05-25 01:03:00,80.0,78.0,30.03,SE,135,19.0,19.0,95,0.00,,,0.00,TxWx,2013-05-25 06:03:00,
2013-05-25 01:05:00,80.0,78.0,30.03,SE,135,8.0,9.0,95,0.00,,,0.00,TxWx,2013-05-25 06:05:00,
2013-05-25 01:08:00,80.0,78.0,30.02,SE,135,11.0,11.0,95,0.00,,,0.00,TxWx,2013-05-25 06:08:00,
2013-05-25 01:09:00,80.0,78.0,30.02,SE,135,12.0,15.0,95,0.00,,,0.00,TxWx,2013-05-25 06:09:00,
2013-05-25 01:10:00,80.0,78.0,30.02,SE,135,13.0,13.0,95,0.00,,,0.00,TxWx,2013-05-25 06:10:00,
2013-05-25 01:14:00,80.0,78.0,30.02,SE,135,19.0,19.0,95,0.00,,,0.00,TxWx,2013-05-25 06:14:00,
2013-05-25 01:15:00,80.0,78.0,30.02,SSE,157,10.0,11.0,95,0.00,,,0.00,TxWx,2013-05-25 06:15:00,
2013-05-25 01:16:00,80.0,78.0,30.02,ESE,112,14.0,15.0,95,0.00,,,0.00,TxWx,2013-05-25 06:16:00,
2013-05-25 01:18:00,80.0,78.0,30.02,SSE,157,12.0,13.0,95,0.00,,,0.00,TxWx,2013-05-25 06:18:00,
2013-05-25 01:19:00,80.0,78.0,30.02,SSE,157,15.0,17.0,95,0.00,,,0.00,TxWx,2013-05-25 06:19:00,
2013-05-25 01:21:00,80.0,78.0,30.02,SSE,157,8.0,9.0,95,0.00,,,0.00,TxWx,2013-05-25 06:21:00,
2013-05-25 01:23:00,80.0,78.0,30.01,SE,135,10.0,10.0,95,0.00,,,0.00,TxWx,2013-05-25 06:23:00,
2013-05-25 01:25:00,80.0,78.0,30.01,SSE,157,10.0,10.0,95,0.00,,,0.00,TxWx,2013-05-25 06:25:00,
2013-05-25 01:26:00,80.0,78.0,30.02,SSE,157,10.0,10.0,95,0.00,,,0.00,TxWx,2013-05-25 06:26:00,
2013-05-25 01:27:00,80.0,78.0,30.01,SSE,157,8.0,10.0,95,0.00,,,0.00,TxWx,2013-05-25 06:27:00,
2013-05-25 01:32:00,80.0,78.0,30.02,ESE,112,14.0,14.0,95,0.00,,,0.00,TxWx,2013-05-25 06:32:00,
2013-05-25 01:33:00,80.0,78.0,30.01,SSE,157,7.0,7.0,95,0.00,,,0.00,TxWx,2013-05-25 06:33:00,
2013-05-25 01:34:00,80.0,78.0,30.01,SSE,157,7.0,7.0,95,0.00,,,0.00,TxWx,2013-05-25 06:34:00,
2013-05-25 01:38:00,80.0,78.0,30.02,SSE,157,11.0,11.0,95,0.00,,,0.00,TxWx,2013-05-25 06:38:00,
2013-05-25 01:39:00,80.0,78.0,30.02,SSE,157,11.0,14.0,95,0.00,,,0.00,TxWx,2013-05-25 06:39:00,
2013-05-25 01:40:00,80.0,78.0,30.01,SSE,157,10.0,10.0,95,0.00,,,0.00,TxWx,2013-05-25 06:40:00,
2013-05-25 01:44:00,80.0,78.0,30.02,SE,135,8.0,9.0,95,0.00,,,0.00,TxWx,2013-05-25 06:44:00,
2013-05-25 01:46:00,80.0,78.0,30.02,South,180,11.0,13.0,95,0.00,,,0.00,TxWx,2013-05-25 06:46:00,
2013-05-25 01:47:00,80.0,78.0,30.02,SE,135,6.0,6.0,95,0.00,,,0.00,TxWx,2013-05-25 06:47:00,
2013-05-25 01:49:00,80.0,78.0,30.02,SSE,157,12.0,12.0,95,0.00,,,0.00,TxWx,2013-05-25 06:49:00,
2013-05-25 01:50:00,80.0,78.0,30.02,SE,135,11.0,11.0,95,0.00,,,0.00,TxWx,2013-05-25 06:50:00,
2013-05-25 01:51:00,80.0,78.0,30.01,South,180,6.0,6.0,95,0.00,,,0.00,TxWx,2013-05-25 06:51:00,
2013-05-25 01:53:00,80.0,78.0,30.02,SE,135,11.0,11.0,95,0.00,,,0.00,TxWx,2013-05-25 06:53:00,
2013-05-25 01:54:00,80.0,78.0,30.01,SE,135,10.0,12.0,95,0.00,,,0.00,TxWx,2013-05-25 06:54:00,
2013-05-25 01:56:00,80.0,78.0,30.01,SE,135,10.0,10.0,95,0.00,,,0.00,TxWx,2013-05-25 06:56:00,
2013-05-25 01:57:00,80.0,78.0,30.01,SE,135,8.0,8.0,95,0.00,,,0.00,TxWx,2013-05-25 06:57:00,
2013-05-25 01:58:00,80.0,78.0,30.01,SE,135,8.0,8.0,95,0.00,,,0.00,TxWx,2013-05-25 06:58:00,
2013-05-25 02:02:00,80.0,78.0,30.01,SSE,157,9.0,10.0,95,0.00,,,0.00,TxWx,2013-05-25 07:02:00,
2013-05-25 02:03:00,80.0,78.0,30.01,SE,135,12.0,12.0,95,0.00,,,0.00,TxWx,2013-05-25 07:03:00,
2013-05-25 02:05:00,80.0,78.0,30.02,SSE,157,6.0,8.0,95,0.00,,,0.00,TxWx,2013-05-25 07:05:00,
2013-05-25 02:06:00,80.0,78.0,30.02,SE,135,10.0,10.0,95,0.00,,,0.00,TxWx,2013-05-25 07:06:00,
2013-05-25 02:08:00,80.0,78.0,30.01,SE,135,6.0,6.0,95,0.00,,,0.00,TxWx,2013-05-25 07:08:00,
2013-05-25 02:09:00,80.0,78.0,30.01,SE,135,13.0,13.0,95,0.00,,,0.00,TxWx,2013-05-25 07:09:00,
2013-05-25 02:11:00,80.0,78.0,30.01,SE,135,8.0,9.0,95,0.00,,,0.00,TxWx,2013-05-25 07:11:00,
2013-05-25 02:12:00,80.0,78.0,30.01,SSE,157,6.0,6.0,95,0.00,,,0.00,TxWx,2013-05-25 07:12:00,
2013-05-25 02:13:00,80.0,78.0,30.01,SSE,157,8.0,8.0,95,0.00,,,0.00,TxWx,2013-05-25 07:13:00,
2013-05-25 02:14:00,80.0,78.0,30.01,SE,135,13.0,15.0,95,0.00,,,0.00,TxWx,2013-05-25 07:14:00,
2013-05-25 02:16:00,80.0,78.0,30.01,SSE,157,7.0,8.0,95,0.00,,,0.00,TxWx,2013-05-25 07:16:00,
2013-05-25 02:19:00,80.0,78.0,30.01,South,180,8.0,9.0,95,0.00,,,0.00,TxWx,2013-05-25 07:19:00,
2013-05-25 02:20:00,80.0,78.0,30.01,SSE,157,8.0,10.0,95,0.00,,,0.00,TxWx,2013-05-25 07:20:00,
2013-05-25 02:21:00,80.0,78.0,30.01,SSE,157,11.0,11.0,95,0.00,,,0.00,TxWx,2013-05-25 07:21:00,
2013-05-25 02:25:00,80.0,78.0,30.02,SSE,157,8.0,8.0,95,0.00,,,0.00,TxWx,2013-05-25 07:25:00,
2013-05-25 02:26:00,80.0,78.0,30.01,SE,135,6.0,6.0,95,0.00,,,0.00,TxWx,2013-05-25 07:26:00,
2013-05-25 02:27:00,80.0,78.0,30.01,ESE,112,6.0,6.0,95,0.00,,,0.00,TxWx,2013-05-25 07:27:00,
2013-05-25 02:28:00,80.0,78.0,30.01,South,180,6.0,7.0,95,0.00,,,0.00,TxWx,2013-05-25 07:28:00,
2013-05-25 02:30:00,80.0,78.0,30.01,SE,135,6.0,6.0,95,0.00,,,0.00,TxWx,2013-05-25 07:30:00,
2013-05-25 02:31:00,80.0,78.0,30.01,SSE,157,14.0,14.0,95,0.00,,,0.00,TxWx,2013-05-25 07:31:00,
2013-05-25 02:32:00,80.0,78.0,30.01,South,180,14.0,17.0,95,0.00,,,0.00,TxWx,2013-05-25 07:32:00,
2013-05-25 02:33:00,80.0,78.0,30.01,SE,135,9.0,9.0,95,0.00,,,0.00,TxWx,2013-05-25 07:33:00,
2013-05-25 02:36:00,80.0,78.0,30.01,SSE,157,11.0,11.0,95,0.00,,,0.00,TxWx,2013-05-25 07:36:00,
2013-05-25 02:37:00,80.0,78.0,30.01,SSW,202,13.0,15.0,95,0.00,,,0.00,TxWx,2013-05-25 07:37:00,
2013-05-25 02:38:00,80.0,78.0,30.01,SSE,157,8.0,8.0,95,0.00,,,0.00,TxWx,2013-05-25 07:38:00,
2013-05-25 02:39:00,80.0,78.0,30.01,SSE,157,11.0,11.0,94,0.00,,,0.00,TxWx,2013-05-25 07:39:00,
2013-05-25 02:40:00,80.0,78.0,30.01,SSE,157,11.0,11.0,94,0.00,,,0.00,TxWx,2013-05-25 07:40:00,
2013-05-25 02:42:00,80.0,78.0,30.01,SE,135,9.0,10.0,94,0.00,,,0.00,TxWx,2013-05-25 07:42:00,
2013-05-25 02:43:00,80.0,78.0,30.01,SE,135,8.0,9.0,94,0.00,,,0.00,TxWx,2013-05-25 07:43:00,
2013-05-25 02:45:00,80.0,78.0,30.01,SSE,157,10.0,10.0,94,0.00,,,0.00,TxWx,2013-05-25 07:45:00,
2013-05-25 02:48:00,80.0,78.0,30.01,SSE,157,10.0,10.0,94,0.00,,,0.00,TxWx,2013-05-25 07:48:00,
2013-05-25 02:49:00,80.0,78.0,30.00,SSE,157,5.0,6.0,94,0.00,,,0.00,TxWx,2013-05-25 07:49:00,
2013-05-25 02:50:00,80.0,78.0,30.00,SSE,157,10.0,10.0,94,0.00,,,0.00,TxWx,2013-05-25 07:50:00,
2013-05-25 02:51:00,80.0,78.0,30.00,SE,135,9.0,10.0,94,0.00,,,0.00,TxWx,2013-05-25 07:51:00,
2013-05-25 02:53:00,80.0,78.0,30.00,SE,135,8.0,8.0,94,0.00,,,0.01,TxWx,2013-05-25 07:53:00,
2013-05-25 02:54:00,80.0,78.0,30.00,SE,135,8.0,8.0,94,0.00,,,0.01,TxWx,2013-05-25 07:54:00,
2013-05-25 02:56:00,79.0,77.0,30.00,SE,135,13.0,13.0,94,0.00,,,0.01,TxWx,2013-05-25 07:56:00,
2013-05-25 02:58:00,79.0,77.0,30.00,SE,135,8.0,8.0,95,0.00,,,0.01,TxWx,2013-05-25 07:58:00,
2013-05-25 02:59:00,79.0,77.0,30.00,SSE,157,8.0,8.0,95,0.00,,,0.01,TxWx,2013-05-25 07:59:00,
2013-05-25 03:01:00,79.0,77.0,29.99,ESE,112,8.0,8.0,95,0.06,,,0.01,TxWx,2013-05-25 08:01:00,
2013-05-25 03:02:00,79.0,77.0,30.00,SSE,157,16.0,16.0,95,0.06,,,0.01,TxWx,2013-05-25 08:02:00,
2013-05-25 03:04:00,79.0,77.0,29.99,SE,135,12.0,15.0,95,0.06,,,0.02,TxWx,2013-05-25 08:04:00,
2013-05-25 03:05:00,79.0,77.0,29.99,SSE,157,13.0,13.0,95,0.06,,,0.03,TxWx,2013-05-25 08:05:00,
2013-05-25 03:07:00,79.0,78.0,30.00,ESE,112,7.0,8.0,96,0.06,,,0.03,TxWx,2013-05-25 08:07:00,
2013-05-25 03:11:00,79.0,78.0,30.00,SSE,157,11.0,13.0,96,0.12,,,0.03,TxWx,2013-05-25 08:11:00,
2013-05-25 03:12:00,79.0,78.0,30.00,South,180,14.0,14.0,96,0.12,,,0.03,TxWx,2013-05-25 08:12:00,
2013-05-25 03:13:00,79.0,78.0,30.00,SSE,157,14.0,15.0,96,0.12,,,0.03,TxWx,2013-05-25 08:13:00,
2013-05-25 03:16:00,79.0,78.0,29.99,SSE,157,11.0,11.0,96,0.12,,,0.03,TxWx,2013-05-25 08:16:00,
2013-05-25 03:17:00,79.0,78.0,29.99,SE,135,16.0,16.0,96,0.12,,,0.03,TxWx,2013-05-25 08:17:00,
2013-05-25 03:18:00,79.0,78.0,29.99,SSE,157,14.0,14.0,96,0.12,,,0.03,TxWx,2013-05-25 08:18:00,
2013-05-25 03:19:00,79.0,78.0,29.99,SE,135,7.0,8.0,96,0.12,,,0.03,TxWx,2013-05-25 08:19:00,
2013-05-25 03:22:00,79.0,78.0,29.99,SSE,157,16.0,16.0,96,0.00,,,0.03,TxWx,2013-05-25 08:22:00,
2013-05-25 03:23:00,79.0,78.0,29.99,SSE,157,6.0,6.0,96,0.00,,,0.03,TxWx,2013-05-25 08:23:00,
2013-05-25 03:24:00,79.0,78.0,29.99,SSW,202,11.0,14.0,96,0.00,,,0.03,TxWx,2013-05-25 08:24:00,
2013-05-25 03:26:00,79.0,78.0,29.99,SE,135,9.0,14.0,97,0.00,,,0.03,TxWx,2013-05-25 08:26:00,
2013-05-25 03:29:00,79.0,78.0,29.99,South,180,12.0,13.0,97,0.00,,,0.03,TxWx,2013-05-25 08:29:00,
2013-05-25 03:30:00,79.0,78.0,29.99,SE,135,7.0,7.0,97,0.00,,,0.03,TxWx,2013-05-25 08:30:00,
2013-05-25 03:31:00,79.0,78.0,29.99,SSE,157,8.0,8.0,97,0.00,,,0.03,TxWx,2013-05-25 08:31:00,
2013-05-25 03:34:00,79.0,78.0,29.99,SE,135,9.0,10.0,97,0.00,,,0.03,TxWx,2013-05-25 08:34:00,
2013-05-25 03:35:00,79.0,78.0,29.99,South,180,11.0,12.0,97,0.00,,,0.03,TxWx,2013-05-25 08:35:00,
2013-05-25 03:37:00,79.0,78.0,29.99,South,180,10.0,10.0,97,0.00,,,0.03,TxWx,2013-05-25 08:37:00,
2013-05-25 03:38:00,79.0,78.0,29.99,SE,135,11.0,11.0,97,0.00,,,0.03,TxWx,2013-05-25 08:38:00,
2013-05-25 03:39:00,79.0,78.0,29.99,SE,135,11.0,11.0,97,0.00,,,0.03,TxWx,2013-05-25 08:39:00,
2013-05-25 03:40:00,79.0,78.0,29.99,SSW,202,13.0,13.0,97,0.00,,,0.03,TxWx,2013-05-25 08:40:00,
2013-05-25 03:41:00,79.0,78.0,29.99,SE,135,11.0,11.0,97,0.00,,,0.03,TxWx,2013-05-25 08:41:00,
2013-05-25 03:42:00,79.0,78.0,29.99,South,180,8.0,10.0,97,0.00,,,0.03,TxWx,2013-05-25 08:42:00,
2013-05-25 03:44:00,79.0,78.0,29.99,SE,135,9.0,9.0,97,0.00,,,0.03,TxWx,2013-05-25 08:44:00,
2013-05-25 03:45:00,79.0,78.0,29.99,SSW,202,10.0,10.0,97,0.00,,,0.03,TxWx,2013-05-25 08:45:00,
2013-05-25 03:46:00,79.0,78.0,29.99,SSE,157,10.0,10.0,97,0.00,,,0.03,TxWx,2013-05-25 08:46:00,
2013-05-25 03:50:00,79.0,78.0,29.99,South,180,16.0,16.0,97,0.00,,,0.03,TxWx,2013-05-25 08:50:00,
2013-05-25 03:51:00,79.0,78.0,29.99,South,180,8.0,8.0,97,0.00,,,0.03,TxWx,2013-05-25 08:51:00,
2013-05-25 03:52:00,79.0,78.0,29.99,SSE,157,10.0,10.0,96,0.00,,,0.03,TxWx,2013-05-25 08:52:00,
2013-05-25 03:55:00,79.0,78.0,29.99,SSW,202,10.0,10.0,96,0.00,,,0.03,TxWx,2013-05-25 08:55:00,
2013-05-25 03:56:00,79.0,78.0,29.98,SE,135,10.0,10.0,96,0.00,,,0.03,TxWx,2013-05-25 08:56:00,
2013-05-25 03:57:00,79.0,78.0,29.99,SE,135,16.0,16.0,96,0.00,,,0.03,TxWx,2013-05-25 08:57:00,
2013-05-25 04:01:00,79.0,78.0,29.98,SSE,157,13.0,13.0,96,0.00,,,0.03,TxWx,2013-05-25 09:01:00,
2013-05-25 04:03:00,79.0,78.0,29.98,SSE,157,11.0,14.0,96,0.00,,,0.03,TxWx,2013-05-25 09:03:00,
2013-05-25 04:04:00,79.0,78.0,29.98,SSE,157,6.0,7.0,96,0.00,,,0.03,TxWx,2013-05-25 09:04:00,
2013-05-25 04:06:00,79.0,78.0,29.98,South,180,11.0,11.0,96,0.00,,,0.03,TxWx,2013-05-25 09:06:00,
2013-05-25 04:08:00,79.0,78.0,29.98,SE,135,12.0,14.0,96,0.00,,,0.03,TxWx,2013-05-25 09:08:00,
2013-05-25 04:09:00,79.0,78.0,29.98,SSE,157,13.0,16.0,96,0.00,,,0.03,TxWx,2013-05-25 09:09:00,
2013-05-25 04:10:00,79.0,78.0,29.98,SSE,157,10.0,10.0,96,0.00,,,0.03,TxWx,2013-05-25 09:10:00,
2013-05-25 04:11:00,79.0,78.0,29.98,South,180,6.0,6.0,96,0.00,,,0.03,TxWx,2013-05-25 09:11:00,
2013-05-25 04:13:00,79.0,78.0,29.98,SSW,202,11.0,11.0,96,0.00,,,0.03,TxWx,2013-05-25 09:13:00,
2013-05-25 04:14:00,79.0,78.0,29.98,SSE,157,11.0,11.0,96,0.00,,,0.03,TxWx,2013-05-25 09:14:00,
2013-05-25 04:15:00,79.0,78.0,29.98,SE,135,16.0,16.0,96,0.00,,,0.03,TxWx,2013-05-25 09:15:00,
2013-05-25 04:16:00,79.0,78.0,29.98,ESE,112,5.0,5.0,96,0.00,,,0.03,TxWx,2013-05-25 09:16:00,
2013-05-25 04:18:00,79.0,78.0,29.98,South,180,9.0,10.0,96,0.00,,,0.03,TxWx,2013-05-25 09:18:00,
2013-05-25 04:20:00,79.0,78.0,29.98,SSE,157,6.0,6.0,96,0.00,,,0.03,TxWx,2013-05-25 09:20:00,
2013-05-25 04:21:00,79.0,78.0,29.98,SSE,157,8.0,8.0,96,0.00,,,0.03,TxWx,2013-05-25 09:21:00,
2013-05-25 04:24:00,79.0,78.0,29.98,SSE,157,6.0,6.0,96,0.00,,,0.03,TxWx,2013-05-25 09:24:00,
2013-05-25 04:25:00,79.0,78.0,29.98,SE,135,8.0,8.0,96,0.00,,,0.03,TxWx,2013-05-25 09:25:00,
2013-05-25 04:27:00,79.0,78.0,29.98,South,180,9.0,10.0,96,0.00,,,0.03,TxWx,2013-05-25 09:27:00,
2013-05-25 04:30:00,79.0,78.0,29.98,SSW,202,10.0,11.0,96,0.00,,,0.03,TxWx,2013-05-25 09:30:00,
2013-05-25 04:31:00,79.0,78.0,29.98,SSW,202,8.0,9.0,96,0.00,,,0.03,TxWx,2013-05-25 09:31:00,
2013-05-25 04:32:00,79.0,78.0,29.98,SSE,157,7.0,7.0,96,0.00,,,0.03,TxWx,2013-05-25 09:32:00,
2013-05-25 04:34:00,79.0,78.0,29.97,SSW,202,13.0,13.0,96,0.00,,,0.03,TxWx,2013-05-25 09:34:00,
2013-05-25 04:36:00,79.0,78.0,29.97,SE,135,5.0,6.0,96,0.00,,,0.03,TxWx,2013-05-25 09:36:00,
2013-05-25 04:38:00,79.0,78.0,29.97,SSE,157,15.0,15.0,96,0.00,,,0.03,TxWx,2013-05-25 09:38:00,
2013-05-25 04:42:00,79.0,78.0,29.97,SE,135,9.0,9.0,96,0.00,,,0.03,TxWx,2013-05-25 09:42:00,
2013-05-25 04:43:00,79.0,78.0,29.97,SE,135,6.0,6.0,96,0.00,,,0.03,TxWx,2013-05-25 09:43:00,
2013-05-25 04:44:00,79.0,78.0,29.97,SSE,157,10.0,11.0,96,0.00,,,0.03,TxWx,2013-05-25 09:44:00,
2013-05-25 04:47:00,79.0,78.0,29.97,SE,135,10.0,10.0,96,0.00,,,0.03,TxWx,2013-05-25 09:47:00,
2013-05-25 04:48:00,79.0,78.0,29.97,SSE,157,11.0,15.0,96,0.00,,,0.03,TxWx,2013-05-25 09:48:00,
2013-05-25 04:49:00,79.0,78.0,29.97,South,180,11.0,13.0,96,0.00,,,0.03,TxWx,2013-05-25 09:49:00,
2013-05-25 04:52:00,79.0,78.0,29.97,South,180,10.0,10.0,96,0.00,,,0.03,TxWx,2013-05-25 09:52:00,
2013-05-25 04:53:00,79.0,78.0,29.97,South,180,13.0,13.0,96,0.00,,,0.03,TxWx,2013-05-25 09:53:00,
2013-05-25 04:54:00,79.0,78.0,29.98,SE,135,8.0,8.0,96,0.00,,,0.03,TxWx,2013-05-25 09:54:00,
2013-05-25 04:55:00,79.0,78.0,29.97,SE,135,14.0,14.0,96,0.00,,,0.03,TxWx,2013-05-25 09:55:00,
2013-05-25 04:57:00,79.0,78.0,29.98,SSE,157,14.0,14.0,96,0.00,,,0.03,TxWx,2013-05-25 09:57:00,
2013-05-25 04:58:00,79.0,78.0,29.98,SE,135,11.0,14.0,96,0.00,,,0.03,TxWx,2013-05-25 09:58:00,
2013-05-25 04:59:00,79.0,78.0,29.98,SE,135,5.0,6.0,96,0.00,,,0.03,TxWx,2013-05-25 09:59:00,
2013-05-25 05:00:00,79.0,78.0,29.98,SE,135,8.0,10.0,96,0.00,,,0.03,TxWx,2013-05-25 10:00:00,
2013-05-25 05:02:00,79.0,78.0,29.98,SSE,157,11.0,11.0,96,0.00,,,0.03,TxWx,2013-05-25 10:02:00,
2013-05-25 05:03:00,79.0,78.0,29.98,SSE,157,13.0,13.0,96,0.00,,,0.03,TxWx,2013-05-25 10:03:00,
2013-05-25 05:04:00,79.0,78.0,29.98,SSE,157,6.0,8.0,96,0.00,,,0.03,TxWx,2013-05-25 10:04:00,
2013-05-25 05:05:00,79.0,78.0,29.98,SE,135,7.0,7.0,96,0.00,,,0.03,TxWx,2013-05-25 10:05:00,
2013-05-25 05:08:00,79.0,77.0,29.98,SSE,157,9.0,10.0,95,0.00,,,0.03,TxWx,2013-05-25 10:08:00,
2013-05-25 05:09:00,79.0,77.0,29.98,SSE,157,12.0,13.0,95,0.00,,,0.03,TxWx,2013-05-25 10:09:00,
2013-05-25 05:11:00,79.0,77.0,29.98,South,180,8.0,10.0,95,0.00,,,0.03,TxWx,2013-05-25 10:11:00,
2013-05-25 05:15:00,79.0,77.0,29.99,SE,135,13.0,13.0,95,0.00,,,0.03,TxWx,2013-05-25 10:15:00,
2013-05-25 05:16:00,79.0,77.0,29.99,SSE,157,8.0,12.0,95,0.00,,,0.03,TxWx,2013-05-25 10:16:00,
2013-05-25 05:17:00,79.0,77.0,29.99,SSE,157,11.0,11.0,95,0.00,,,0.03,TxWx,2013-05-25 10:17:00,
2013-05-25 05:18:00,79.0,77.0,29.99,SE,135,9.0,9.0,95,0.00,,,0.03,TxWx,2013-05-25 10:18:00,
2013-05-25 05:20:00,79.0,77.0,29.99,ESE,112,5.0,5.0,95,0.00,,,0.03,TxWx,2013-05-25 10:20:00,
2013-05-25 05:21:00,79.0,77.0,29.99,SE,135,5.0,6.0,95,0.00,,,0.03,TxWx,2013-05-25 10:21:00,
2013-05-25 05:22:00,79.0,77.0,29.99,South,180,11.0,11.0,95,0.00,,,0.03,TxWx,2013-05-25 10:22:00,
2013-05-25 05:23:00,79.0,77.0,29.99,SSW,202,5.0,5.0,95,0.00,,,0.03,TxWx,2013-05-25 10:23:00,
2013-05-25 05:25:00,79.0,77.0,29.99,South,180,8.0,8.0,95,0.00,,,0.03,TxWx,2013-05-25 10:25:00,
2013-05-25 05:28:00,79.0,77.0,29.99,SSW,202,10.0,10.0,95,0.00,,,0.03,TxWx,2013-05-25 10:28:00,
2013-05-25 05:29:00,79.0,77.0,29.99,South,180,13.0,14.0,95,0.00,,,0.03,TxWx,2013-05-25 10:29:00,
2013-05-25 05:31:00,79.0,77.0,29.99,SSE,157,5.0,5.0,95,0.00,,,0.03,TxWx,2013-05-25 10:31:00,
2013-05-25 05:34:00,79.0,77.0,29.99,SSE,157,9.0,10.0,95,0.00,,,0.03,TxWx,2013-05-25 10:34:00,
2013-05-25 05:36:00,79.0,77.0,29.99,South,180,10.0,10.0,95,0.00,,,0.03,TxWx,2013-05-25 10:36:00,
2013-05-25 05:38:00,79.0,77.0,29.99,South,180,13.0,13.0,95,0.00,,,0.03,TxWx,2013-05-25 10:38:00,
2013-05-25 05:40:00,79.0,77.0,29.99,SE,135,8.0,8.0,95,0.00,,,0.03,TxWx,2013-05-25 10:40:00,
2013-05-25 05:42:00,79.0,77.0,29.99,SE,135,8.0,9.0,95,0.00,,,0.03,TxWx,2013-05-25 10:42:00,
2013-05-25 05:43:00,79.0,77.0,29.99,SSE,157,11.0,12.0,95,0.00,,,0.03,TxWx,2013-05-25 10:43:00,
2013-05-25 05:44:00,79.0,77.0,29.99,SSE,157,9.0,10.0,95,0.00,,,0.03,TxWx,2013-05-25 10:44:00,
2013-05-25 05:46:00,79.0,77.0,29.99,South,180,6.0,6.0,95,0.00,,,0.03,TxWx,2013-05-25 10:46:00,
2013-05-25 05:48:00,79.0,77.0,29.99,South,180,9.0,9.0,95,0.00,,,0.03,TxWx,2013-05-25 10:48:00,
2013-05-25 05:49:00,79.0,77.0,29.99,SSE,157,10.0,10.0,95,0.00,,,0.03,TxWx,2013-05-25 10:49:00,
2013-05-25 05:50:00,79.0,77.0,29.99,South,180,10.0,13.0,95,0.00,,,0.03,TxWx,2013-05-25 10:50:00,
2013-05-25 05:52:00,79.0,77.0,29.99,SSE,157,8.0,8.0,95,0.00,,,0.03,TxWx,2013-05-25 10:52:00,
2013-05-25 05:53:00,79.0,77.0,29.99,SE,135,6.0,6.0,95,0.00,,,0.03,TxWx,2013-05-25 10:53:00,
2013-05-25 05:55:00,79.0,77.0,29.99,SSE,157,13.0,13.0,95,0.00,,,0.03,TxWx,2013-05-25 10:55:00,
2013-05-25 05:58:00,79.0,77.0,29.99,SSW,202,7.0,7.0,95,0.00,,,0.03,TxWx,2013-05-25 10:58:00,
2013-05-25 05:59:00,79.0,77.0,29.99,SSW,202,10.0,11.0,95,0.00,,,0.03,TxWx,2013-05-25 10:59:00,
2013-05-25 06:00:00,79.0,77.0,29.99,SSE,157,4.0,5.0,95,0.00,,,0.03,TxWx,2013-05-25 11:00:00,
2013-05-25 06:03:00,79.0,77.0,29.99,SSE,157,14.0,14.0,95,0.00,,,0.03,TxWx,2013-05-25 11:03:00,
2013-05-25 06:04:00,79.0,77.0,29.99,SSE,157,8.0,8.0,95,0.00,,,0.03,TxWx,2013-05-25 11:04:00,
2013-05-25 06:05:00,79.0,77.0,29.99,SSE,157,6.0,6.0,95,0.00,,,0.03,TxWx,2013-05-25 11:05:00,
2013-05-25 06:09:00,79.0,77.0,29.99,ESE,112,8.0,10.0,95,0.00,,,0.03,TxWx,2013-05-25 11:09:00,
2013-05-25 06:11:00,79.0,77.0,29.99,SE,135,6.0,6.0,95,0.00,,,0.03,TxWx,2013-05-25 11:11:00,
2013-05-25 06:12:00,79.0,77.0,29.99,South,180,10.0,11.0,95,0.00,,,0.03,TxWx,2013-05-25 11:12:00,
2013-05-25 06:13:00,79.0,77.0,29.99,SSE,157,8.0,8.0,95,0.00,,,0.03,TxWx,2013-05-25 11:13:00,
2013-05-25 06:14:00,79.0,77.0,29.99,SSE,157,7.0,8.0,95,0.00,,,0.03,TxWx,2013-05-25 11:14:00,
2013-05-25 06:16:00,79.0,77.0,29.99,ESE,112,6.0,8.0,95,0.00,,,0.03,TxWx,2013-05-25 11:16:00,
2013-05-25 06:17:00,79.0,77.0,29.99,South,180,12.0,16.0,95,0.00,,,0.03,TxWx,2013-05-25 11:17:00,
2013-05-25 06:18:00,79.0,77.0,29.99,SSE,157,12.0,12.0,95,0.00,,,0.03,TxWx,2013-05-25 11:18:00,
2013-05-25 06:22:00,79.0,77.0,29.99,SSE,157,11.0,11.0,95,0.00,,,0.03,TxWx,2013-05-25 11:22:00,
2013-05-25 06:23:00,79.0,77.0,29.99,SSE,157,13.0,13.0,95,0.00,,,0.03,TxWx,2013-05-25 11:23:00,
2013-05-25 06:24:00,79.0,77.0,29.99,SE,135,8.0,9.0,95,0.00,,,0.03,TxWx,2013-05-25 11:24:00,
2013-05-25 06:26:00,79.0,77.0,29.99,SSE,157,16.0,16.0,95,0.00,,,0.03,TxWx,2013-05-25 11:26:00,
2013-05-25 06:28:00,79.0,77.0,29.98,SE,135,9.0,11.0,95,0.00,,,0.03,TxWx,2013-05-25 11:28:00,
2013-05-25 06:29:00,79.0,77.0,29.98,SSE,157,10.0,11.0,95,0.00,,,0.03,TxWx,2013-05-25 11:29:00,
2013-05-25 06:31:00,79.0,77.0,29.98,ESE,112,6.0,7.0,95,0.00,,,0.03,TxWx,2013-05-25 11:31:00,
2013-05-25 06:35:00,79.0,77.0,29.98,South,180,10.0,14.0,95,0.00,,,0.03,TxWx,2013-05-25 11:35:00,
2013-05-25 06:36:00,79.0,77.0,29.98,South,180,13.0,13.0,95,0.00,,,0.03,TxWx,2013-05-25 11:36:00,
2013-05-25 06:38:00,79.0,77.0,29.98,South,180,16.0,16.0,95,0.00,,,0.03,TxWx,2013-05-25 11:38:00,
2013-05-25 06:39:00,79.0,77.0,29.98,SE,135,6.0,6.0,95,0.00,,,0.03,TxWx,2013-05-25 11:39:00,
2013-05-25 06:40:00,79.0,77.0,29.98,SSE,157,8.0,8.0,95,0.00,,,0.03,TxWx,2013-05-25 11:40:00,
2013-05-25 06:43:00,79.0,77.0,29.98,South,180,8.0,11.0,95,0.00,,,0.03,TxWx,2013-05-25 11:43:00,
2013-05-25 06:44:00,79.0,77.0,29.98,SE,135,8.0,8.0,95,0.00,,,0.03,TxWx,2013-05-25 11:44:00,
2013-05-25 06:45:00,79.0,77.0,29.98,SSE,157,6.0,7.0,95,0.00,,,0.03,TxWx,2013-05-25 11:45:00,
2013-05-25 06:46:00,79.0,77.0,29.98,SSE,157,8.0,8.0,95,0.00,,,0.03,TxWx,2013-05-25 11:46:00,
2013-05-25 06:48:00,79.0,77.0,29.98,SSE,157,10.0,10.0,95,0.00,,,0.03,TxWx,2013-05-25 11:48:00,
2013-05-25 06:50:00,79.0,77.0,29.99,SE,135,8.0,8.0,95,0.00,,,0.03,TxWx,2013-05-25 11:50:00,
2013-05-25 06:51:00,79.0,77.0,29.99,SSE,157,10.0,14.0,95,0.00,,,0.03,TxWx,2013-05-25 11:51:00,
2013-05-25 06:55:00,79.0,77.0,29.99,SSE,157,6.0,6.0,95,0.00,,,0.03,TxWx,2013-05-25 11:55:00,
2013-05-25 06:56:00,79.0,77.0,29.99,SE,135,8.0,8.0,95,0.00,,,0.03,TxWx,2013-05-25 11:56:00,
2013-05-25 06:57:00,79.0,77.0,29.99,SSW,202,9.0,10.0,95,0.00,,,0.03,TxWx,2013-05-25 11:57:00,
2013-05-25 06:58:00,79.0,77.0,29.99,SE,135,8.0,10.0,95,0.00,,,0.03,TxWx,2013-05-25 11:58:00,
2013-05-25 07:02:00,79.0,77.0,29.99,SSW,202,12.0,14.0,95,0.00,,,0.03,TxWx,2013-05-25 12:02:00,
2013-05-25 07:03:00,79.0,77.0,29.99,South,180,5.0,7.0,95,0.00,,,0.03,TxWx,2013-05-25 12:03:00,
2013-05-25 07:04:00,79.0,77.0,29.99,SSE,157,6.0,6.0,95,0.00,,,0.03,TxWx,2013-05-25 12:04:00,
2013-05-25 07:05:00,79.0,77.0,29.99,South,180,9.0,10.0,95,0.00,,,0.03,TxWx,2013-05-25 12:05:00,
2013-05-25 07:08:00,79.0,77.0,30.00,South,180,8.0,10.0,95,0.00,,,0.03,TxWx,2013-05-25 12:08:00,
2013-05-25 07:09:00,79.0,77.0,30.00,South,180,10.0,10.0,95,0.00,,,0.03,TxWx,2013-05-25 12:09:00,
2013-05-25 07:10:00,79.0,77.0,30.00,South,180,9.0,9.0,95,0.00,,,0.03,TxWx,2013-05-25 12:10:00,
2013-05-25 07:11:00,79.0,77.0,30.00,SE,135,9.0,9.0,95,0.00,,,0.03,TxWx,2013-05-25 12:11:00,
2013-05-25 07:14:00,79.0,77.0,30.00,SSE,157,11.0,11.0,95,0.00,,,0.03,TxWx,2013-05-25 12:14:00,
2013-05-25 07:15:00,79.0,77.0,30.00,SSE,157,10.0,12.0,95,0.00,,,0.03,TxWx,2013-05-25 12:15:00,
2013-05-25 07:17:00,79.0,77.0,30.00,South,180,12.0,12.0,95,0.00,,,0.03,TxWx,2013-05-25 12:17:00,
2013-05-25 07:21:00,79.0,77.0,30.00,SE,135,6.0,6.0,95,0.00,,,0.03,TxWx,2013-05-25 12:21:00,
2013-05-25 07:22:00,79.0,77.0,30.00,SSE,157,6.0,6.0,95,0.00,,,0.03,TxWx,2013-05-25 12:22:00,
2013-05-25 07:23:00,79.0,77.0,30.00,South,180,6.0,9.0,95,0.00,,,0.03,TxWx,2013-05-25 12:23:00,
2013-05-25 07:27:00,79.0,77.0,30.00,SE,135,17.0,17.0,95,0.00,,,0.03,TxWx,2013-05-25 12:27:00,
2013-05-25 07:28:00,79.0,77.0,30.00,SW,225,7.0,7.0,95,0.00,,,0.03,TxWx,2013-05-25 12:28:00,
2013-05-25 07:30:00,79.0,77.0,30.00,SSE,157,11.0,12.0,95,0.00,,,0.03,TxWx,2013-05-25 12:30:00,
2013-05-25 07:33:00,79.0,77.0,30.01,SE,135,9.0,9.0,95,0.00,,,0.03,TxWx,2013-05-25 12:33:00,
2013-05-25 07:34:00,79.0,77.0,30.01,ESE,112,8.0,8.0,95,0.00,,,0.03,TxWx,2013-05-25 12:34:00,
2013-05-25 07:35:00,79.0,77.0,30.01,South,180,7.0,8.0,95,0.00,,,0.03,TxWx,2013-05-25 12:35:00,
2013-05-25 07:38:00,79.0,77.0,30.01,SSE,157,6.0,8.0,95,0.00,,,0.03,TxWx,2013-05-25 12:38:00,
2013-05-25 07:40:00,79.0,77.0,30.01,SE,135,8.0,10.0,95,0.00,,,0.03,TxWx,2013-05-25 12:40:00,
2013-05-25 07:41:00,79.0,77.0,30.01,South,180,5.0,5.0,95,0.00,,,0.03,TxWx,2013-05-25 12:41:00,
2013-05-25 07:43:00,79.0,77.0,30.01,SE,135,10.0,10.0,95,0.00,,,0.03,TxWx,2013-05-25 12:43:00,
2013-05-25 07:44:00,79.0,77.0,30.01,SE,135,5.0,5.0,95,0.00,,,0.03,TxWx,2013-05-25 12:44:00,
2013-05-25 07:45:00,79.0,77.0,30.01,SE,135,14.0,14.0,95,0.00,,,0.03,TxWx,2013-05-25 12:45:00,
2013-05-25 07:47:00,79.0,77.0,30.01,SSE,157,8.0,8.0,95,0.00,,,0.03,TxWx,2013-05-25 12:47:00,
2013-05-25 07:49:00,79.0,77.0,30.01,SE,135,8.0,8.0,95,0.00,,,0.03,TxWx,2013-05-25 12:49:00,
2013-05-25 07:50:00,79.0,77.0,30.01,SE,135,7.0,8.0,95,0.00,,,0.03,TxWx,2013-05-25 12:50:00,
2013-05-25 07:52:00,79.0,77.0,30.01,SSE,157,16.0,16.0,95,0.00,,,0.03,TxWx,2013-05-25 12:52:00,
2013-05-25 07:55:00,79.0,77.0,30.01,SSE,157,14.0,14.0,94,0.00,,,0.03,TxWx,2013-05-25 12:55:00,
2013-05-25 07:56:00,79.0,77.0,30.01,SSW,202,9.0,9.0,94,0.00,,,0.03,TxWx,2013-05-25 12:56:00,
2013-05-25 07:57:00,79.0,77.0,30.02,South,180,13.0,13.0,94,0.00,,,0.03,TxWx,2013-05-25 12:57:00,
2013-05-25 07:59:00,79.0,77.0,30.02,South,180,11.0,11.0,94,0.00,,,0.03,TxWx,2013-05-25 12:59:00,
2013-05-25 08:00:00,79.0,77.0,30.02,SSW,202,13.0,14.0,94,0.00,,,0.03,TxWx,2013-05-25 13:00:00,
2013-05-25 08:03:00,79.0,77.0,30.02,SSE,157,10.0,10.0,94,0.00,,,0.03,TxWx,2013-05-25 13:03:00,
2013-05-25 08:04:00,80.0,78.0,30.03,SSE,157,5.0,6.0,94,0.00,,,0.03,TxWx,2013-05-25 13:04:00,
2013-05-25 08:05:00,79.0,77.0,30.03,SSE,157,14.0,16.0,94,0.00,,,0.03,TxWx,2013-05-25 13:05:00,
2013-05-25 08:08:00,80.0,78.0,30.03,SSW,202,12.0,12.0,94,0.00,,,0.03,TxWx,2013-05-25 13:08:00,
2013-05-25 08:09:00,80.0,78.0,30.03,SSE,157,12.0,13.0,94,0.00,,,0.03,TxWx,2013-05-25 13:09:00,
2013-05-25 08:10:00,80.0,78.0,30.03,SE,135,11.0,11.0,94,0.00,,,0.03,TxWx,2013-05-25 13:10:00,
2013-05-25 08:11:00,80.0,78.0,30.03,South,180,8.0,8.0,94,0.00,,,0.03,TxWx,2013-05-25 13:11:00,
2013-05-25 08:13:00,80.0,78.0,30.03,SSE,157,8.0,10.0,94,0.00,,,0.03,TxWx,2013-05-25 13:13:00,
2013-05-25 08:16:00,80.0,78.0,30.04,SE,135,10.0,12.0,94,0.00,,,0.03,TxWx,2013-05-25 13:16:00,
2013-05-25 08:17:00,80.0,78.0,30.03,SE,135,12.0,12.0,93,0.00,,,0.03,TxWx,2013-05-25 13:17:00,
2013-05-25 08:18:00,80.0,78.0,30.04,South,180,11.0,11.0,93,0.00,,,0.03,TxWx,2013-05-25 13:18:00,
2013-05-25 08:19:00,80.0,78.0,30.04,SE,135,13.0,14.0,93,0.00,,,0.03,TxWx,2013-05-25 13:19:00,
2013-05-25 08:22:00,80.0,78.0,30.04,South,180,12.0,12.0,93,0.00,,,0.03,TxWx,2013-05-25 13:22:00,
2013-05-25 08:24:00,80.0,78.0,30.04,SSE,157,8.0,8.0,93,0.00,,,0.03,TxWx,2013-05-25 13:24:00,
2013-05-25 08:25:00,80.0,78.0,30.04,South,180,11.0,11.0,93,0.00,,,0.03,TxWx,2013-05-25 13:25:00,
2013-05-25 08:26:00,80.0,78.0,30.04,South,180,10.0,10.0,93,0.00,,,0.03,TxWx,2013-05-25 13:26:00,
2013-05-25 08:27:00,80.0,78.0,30.04,South,180,12.0,12.0,93,0.00,,,0.03,TxWx,2013-05-25 13:27:00,
2013-05-25 08:28:00,80.0,78.0,30.04,South,180,8.0,8.0,93,0.00,,,0.03,TxWx,2013-05-25 13:28:00,
2013-05-25 08:30:00,80.0,78.0,30.04,SSE,157,9.0,12.0,93,0.00,,,0.03,TxWx,2013-05-25 13:30:00,
2013-05-25 08:31:00,80.0,78.0,30.03,SE,135,10.0,11.0,93,0.00,,,0.03,TxWx,2013-05-25 13:31:00,
2013-05-25 08:33:00,80.0,78.0,30.04,South,180,6.0,7.0,93,0.00,,,0.03,TxWx,2013-05-25 13:33:00,
2013-05-25 08:35:00,80.0,77.0,30.04,SSE,157,11.0,12.0,92,0.00,,,0.03,TxWx,2013-05-25 13:35:00,
2013-05-25 08:36:00,80.0,77.0,30.04,SSE,157,14.0,16.0,92,0.00,,,0.03,TxWx,2013-05-25 13:36:00,
2013-05-25 08:37:00,80.0,77.0,30.04,SE,135,17.0,17.0,92,0.00,,,0.04,TxWx,2013-05-25 13:37:00,
2013-05-25 08:39:00,80.0,77.0,30.04,SSE,157,13.0,14.0,92,0.00,,,0.04,TxWx,2013-05-25 13:39:00,
2013-05-25 08:41:00,80.0,77.0,30.04,South,180,16.0,16.0,92,0.06,,,0.04,TxWx,2013-05-25 13:41:00,
2013-05-25 08:42:00,80.0,77.0,30.03,SSE,157,14.0,14.0,92,0.06,,,0.04,TxWx,2013-05-25 13:42:00,
2013-05-25 08:43:00,80.0,77.0,30.03,South,180,17.0,17.0,92,0.06,,,0.04,TxWx,2013-05-25 13:43:00,
2013-05-25 08:44:00,80.0,77.0,30.04,SSE,157,13.0,14.0,92,0.06,,,0.04,TxWx,2013-05-25 13:44:00,
2013-05-25 08:47:00,81.0,78.0,30.03,South,180,10.0,10.0,92,0.06,,,0.04,TxWx,2013-05-25 13:47:00,
2013-05-25 08:49:00,81.0,78.0,30.03,South,180,15.0,15.0,92,0.06,,,0.04,TxWx,2013-05-25 13:49:00,
2013-05-25 08:50:00,80.0,77.0,30.03,SSW,202,8.0,9.0,91,0.06,,,0.04,TxWx,2013-05-25 13:50:00,
2013-05-25 08:53:00,80.0,77.0,30.03,SSW,202,11.0,13.0,91,0.00,,,0.04,TxWx,2013-05-25 13:53:00,
2013-05-25 08:55:00,80.0,77.0,30.03,SSE,157,19.0,19.0,91,0.00,,,0.04,TxWx,2013-05-25 13:55:00,
2013-05-25 08:58:00,80.0,77.0,30.04,South,180,14.0,14.0,91,0.00,,,0.04,TxWx,2013-05-25 13:58:00,
2013-05-25 09:00:00,80.0,77.0,30.04,South,180,5.0,6.0,92,0.00,,,0.04,TxWx,2013-05-25 14:00:00,
2013-05-25 09:01:00,80.0,77.0,30.04,South,180,8.0,8.0,92,0.00,,,0.04,TxWx,2013-05-25 14:01:00,
2013-05-25 09:03:00,80.0,77.0,30.04,South,180,7.0,7.0,92,0.00,,,0.04,TxWx,2013-05-25 14:03:00,
2013-05-25 09:05:00,80.0,77.0,30.04,SSE,157,12.0,14.0,91,0.00,,,0.04,TxWx,2013-05-25 14:05:00,
2013-05-25 09:06:00,80.0,77.0,30.04,SW,225,10.0,10.0,92,0.00,,,0.04,TxWx,2013-05-25 14:06:00,
2013-05-25 09:07:00,80.0,77.0,30.04,SSW,202,18.0,18.0,91,0.00,,,0.04,TxWx,2013-05-25 14:07:00,
2013-05-25 09:08:00,80.0,77.0,30.04,SSE,157,11.0,13.0,91,0.00,,,0.04,TxWx,2013-05-25 14:08:00,
2013-05-25 09:11:00,80.0,77.0,30.04,SSW,202,16.0,18.0,91,0.00,,,0.04,TxWx,2013-05-25 14:11:00,
2013-05-25 09:12:00,80.0,77.0,30.04,SSW,202,11.0,11.0,91,0.00,,,0.04,TxWx,2013-05-25 14:12:00,
2013-05-25 09:13:00,81.0,78.0,30.04,SSE,157,11.0,11.0,91,0.00,,,0.04,TxWx,2013-05-25 14:13:00,
2013-05-25 09:14:00,81.0,78.0,30.04,SSE,157,11.0,13.0,91,0.00,,,0.04,TxWx,2013-05-25 14:14:00,
2013-05-25 09:17:00,80.0,77.0,30.04,South,180,8.0,12.0,91,0.00,,,0.04,TxWx,2013-05-25 14:17:00,
2013-05-25 09:18:00,81.0,78.0,30.04,SE,135,11.0,11.0,91,0.00,,,0.04,TxWx,2013-05-25 14:18:00,
2013-05-25 09:19:00,80.0,77.0,30.04,SSE,157,15.0,15.0,91,0.00,,,0.04,TxWx,2013-05-25 14:19:00,
2013-05-25 09:20:00,81.0,78.0,30.04,South,180,11.0,11.0,91,0.00,,,0.04,TxWx,2013-05-25 14:20:00,
2013-05-25 09:21:00,81.0,78.0,30.04,SSE,157,7.0,13.0,91,0.00,,,0.04,TxWx,2013-05-25 14:21:00,
2013-05-25 09:22:00,81.0,78.0,30.04,SE,135,6.0,6.0,91,0.00,,,0.04,TxWx,2013-05-25 14:22:00,
2013-05-25 09:24:00,81.0,78.0,30.04,SE,135,4.0,4.0,91,0.00,,,0.04,TxWx,2013-05-25 14:24:00,
2013-05-25 09:26:00,81.0,78.0,30.04,SSE,157,9.0,10.0,91,0.00,,,0.04,TxWx,2013-05-25 14:26:00,
2013-05-25 09:27:00,81.0,78.0,30.04,SE,135,13.0,13.0,91,0.00,,,0.04,TxWx,2013-05-25 14:27:00,
2013-05-25 09:32:00,81.0,78.0,30.04,SSW,202,14.0,17.0,90,0.00,,,0.04,TxWx,2013-05-25 14:32:00,
2013-05-25 09:34:00,81.0,78.0,30.04,South,180,5.0,6.0,91,0.00,,,0.04,TxWx,2013-05-25 14:34:00,
2013-05-25 09:35:00,81.0,78.0,30.04,SSE,157,8.0,8.0,91,0.00,,,0.04,TxWx,2013-05-25 14:35:00,
2013-05-25 09:37:00,81.0,78.0,30.03,SSE,157,17.0,17.0,90,0.00,,,0.04,TxWx,2013-05-25 14:37:00,
2013-05-25 09:38:00,81.0,78.0,30.04,SSE,157,9.0,9.0,91,0.00,,,0.04,TxWx,2013-05-25 14:38:00,
2013-05-25 09:39:00,81.0,78.0,30.04,SE,135,14.0,14.0,91,0.00,,,0.04,TxWx,2013-05-25 14:39:00,
2013-05-25 09:41:00,81.0,78.0,30.04,SSW,202,11.0,12.0,90,0.00,,,0.04,TxWx,2013-05-25 14:41:00,
2013-05-25 09:43:00,81.0,78.0,30.04,South,180,10.0,10.0,91,0.00,,,0.04,TxWx,2013-05-25 14:43:00,
2013-05-25 09:44:00,81.0,78.0,30.04,SSE,157,9.0,9.0,91,0.00,,,0.04,TxWx,2013-05-25 14:44:00,
2013-05-25 09:46:00,81.0,78.0,30.04,SSE,157,13.0,16.0,90,0.00,,,0.04,TxWx,2013-05-25 14:46:00,
2013-05-25 09:47:00,81.0,78.0,30.04,SSW,202,5.0,9.0,90,0.00,,,0.04,TxWx,2013-05-25 14:47:00,
2013-05-25 09:50:00,81.0,78.0,30.04,SW,225,14.0,14.0,90,0.00,,,0.04,TxWx,2013-05-25 14:50:00,
2013-05-25 09:51:00,81.0,78.0,30.04,South,180,10.0,10.0,90,0.00,,,0.04,TxWx,2013-05-25 14:51:00,
2013-05-25 09:52:00,81.0,78.0,30.04,SSE,157,8.0,12.0,90,0.00,,,0.04,TxWx,2013-05-25 14:52:00,
2013-05-25 09:54:00,81.0,78.0,30.04,SSE,157,9.0,10.0,90,0.00,,,0.04,TxWx,2013-05-25 14:54:00,
2013-05-25 09:56:00,81.0,78.0,30.04,SE,135,10.0,10.0,90,0.00,,,0.04,TxWx,2013-05-25 14:56:00,
2013-05-25 09:58:00,81.0,78.0,30.04,South,180,10.0,10.0,90,0.00,,,0.04,TxWx,2013-05-25 14:58:00,
2013-05-25 09:59:00,81.0,78.0,30.04,SSE,157,10.0,10.0,90,0.00,,,0.04,TxWx,2013-05-25 14:59:00,
2013-05-25 10:02:00,81.0,78.0,30.04,SSE,157,8.0,10.0,90,0.00,,,0.04,TxWx,2013-05-25 15:02:00,
2013-05-25 10:06:00,81.0,78.0,30.04,SE,135,13.0,14.0,90,0.00,,,0.04,TxWx,2013-05-25 15:06:00,
2013-05-25 10:08:00,82.0,78.0,30.04,SE,135,11.0,13.0,89,0.00,,,0.04,TxWx,2013-05-25 15:08:00,
2013-05-25 10:10:00,81.0,77.0,30.05,SSE,157,14.0,15.0,89,0.00,,,0.04,TxWx,2013-05-25 15:10:00,
2013-05-25 10:12:00,81.0,77.0,30.05,South,180,12.0,13.0,88,0.00,,,0.04,TxWx,2013-05-25 15:12:00,
2013-05-25 10:13:00,81.0,77.0,30.05,SW,225,8.0,9.0,89,0.00,,,0.04,TxWx,2013-05-25 15:13:00,
2013-05-25 10:14:00,81.0,77.0,30.05,SW,225,9.0,10.0,89,0.00,,,0.04,TxWx,2013-05-25 15:14:00,
2013-05-25 10:16:00,81.0,77.0,30.05,SSE,157,11.0,11.0,89,0.00,,,0.04,TxWx,2013-05-25 15:16:00,
2013-05-25 10:17:00,81.0,77.0,30.05,SSW,202,11.0,11.0,89,0.00,,,0.04,TxWx,2013-05-25 15:17:00,
2013-05-25 10:20:00,80.0,76.0,30.05,SE,135,7.0,8.0,88,0.00,,,0.04,TxWx,2013-05-25 15:20:00,
2013-05-25 10:21:00,81.0,77.0,30.05,SSW,202,6.0,7.0,89,0.00,,,0.04,TxWx,2013-05-25 15:21:00,
2013-05-25 10:22:00,81.0,78.0,30.05,SSE,157,11.0,11.0,90,0.00,,,0.04,TxWx,2013-05-25 15:22:00,
2013-05-25 10:25:00,81.0,78.0,30.05,SE,135,14.0,14.0,90,0.00,,,0.04,TxWx,2013-05-25 15:25:00,
2013-05-25 10:27:00,80.0,77.0,30.04,East,90,8.0,10.0,90,0.00,,,0.04,TxWx,2013-05-25 15:27:00,
2013-05-25 10:29:00,80.0,77.0,30.04,SE,135,11.0,11.0,90,0.00,,,0.04,TxWx,2013-05-25 15:29:00,
2013-05-25 10:30:00,80.0,77.0,30.04,SSE,157,9.0,10.0,90,0.00,,,0.04,TxWx,2013-05-25 15:30:00,
2013-05-25 10:31:00,80.0,77.0,30.04,East,90,9.0,11.0,91,0.00,,,0.04,TxWx,2013-05-25 15:31:00,
2013-05-25 10:32:00,80.0,77.0,30.04,SE,135,14.0,15.0,91,0.00,,,0.04,TxWx,2013-05-25 15:32:00,
2013-05-25 10:33:00,80.0,77.0,30.04,SE,135,7.0,10.0,91,0.00,,,0.04,TxWx,2013-05-25 15:33:00,
2013-05-25 10:35:00,80.0,77.0,30.04,SSE,157,12.0,13.0,91,0.00,,,0.04,TxWx,2013-05-25 15:35:00,
2013-05-25 10:37:00,80.0,77.0,30.04,SE,135,14.0,18.0,91,0.00,,,0.04,TxWx,2013-05-25 15:37:00,
2013-05-25 10:39:00,80.0,77.0,30.05,ESE,112,7.0,8.0,92,0.00,,,0.04,TxWx,2013-05-25 15:39:00,
2013-05-25 10:40:00,80.0,77.0,30.05,SE,135,14.0,14.0,92,0.00,,,0.04,TxWx,2013-05-25 15:40:00,
2013-05-25 10:43:00,80.0,77.0,30.05,SE,135,13.0,13.0,92,0.00,,,0.04,TxWx,2013-05-25 15:43:00,
2013-05-25 10:44:00,80.0,77.0,30.05,SE,135,10.0,10.0,92,0.00,,,0.04,TxWx,2013-05-25 15:44:00,
2013-05-25 10:45:00,80.0,77.0,30.05,SE,135,12.0,12.0,92,0.00,,,0.04,TxWx,2013-05-25 15:45:00,
2013-05-25 10:48:00,80.0,77.0,30.05,SE,135,16.0,16.0,92,0.00,,,0.04,TxWx,2013-05-25 15:48:00,
2013-05-25 10:49:00,80.0,77.0,30.05,SSE,157,10.0,10.0,92,0.00,,,0.04,TxWx,2013-05-25 15:49:00,
2013-05-25 10:51:00,80.0,77.0,30.05,ESE,112,12.0,12.0,92,0.00,,,0.04,TxWx,2013-05-25 15:51:00,
2013-05-25 10:53:00,80.0,77.0,30.05,SE,135,13.0,13.0,91,0.00,,,0.04,TxWx,2013-05-25 15:53:00,
2013-05-25 10:54:00,80.0,77.0,30.06,SE,135,16.0,16.0,91,0.00,,,0.04,TxWx,2013-05-25 15:54:00,
2013-05-25 10:55:00,80.0,77.0,30.06,SSE,157,11.0,11.0,91,0.00,,,0.04,TxWx,2013-05-25 15:55:00,
2013-05-25 10:57:00,81.0,78.0,30.06,SSE,157,8.0,8.0,91,0.00,,,0.04,TxWx,2013-05-25 15:57:00,
2013-05-25 10:58:00,81.0,78.0,30.06,SE,135,10.0,13.0,91,0.00,,,0.04,TxWx,2013-05-25 15:58:00,
2013-05-25 10:59:00,81.0,78.0,30.06,ESE,112,7.0,8.0,91,0.00,,,0.04,TxWx,2013-05-25 15:59:00,
2013-05-25 11:01:00,81.0,78.0,30.06,SE,135,14.0,14.0,91,0.00,,,0.04,TxWx,2013-05-25 16:01:00,
2013-05-25 11:03:00,81.0,78.0,30.06,SSE,157,9.0,11.0,91,0.00,,,0.04,TxWx,2013-05-25 16:03:00,
2013-05-25 11:04:00,81.0,78.0,30.06,South,180,6.0,7.0,91,0.00,,,0.04,TxWx,2013-05-25 16:04:00,
2013-05-25 11:05:00,81.0,78.0,30.06,ESE,112,15.0,15.0,91,0.00,,,0.04,TxWx,2013-05-25 16:05:00,
2013-05-25 11:08:00,81.0,78.0,30.06,SE,135,16.0,16.0,91,0.00,,,0.04,TxWx,2013-05-25 16:08:00,
2013-05-25 11:09:00,81.0,78.0,30.06,SSE,157,11.0,13.0,91,0.00,,,0.04,TxWx,2013-05-25 16:09:00,
2013-05-25 11:10:00,81.0,78.0,30.06,SE,135,14.0,14.0,91,0.00,,,0.04,TxWx,2013-05-25 16:10:00,
2013-05-25 11:13:00,81.0,78.0,30.06,SE,135,14.0,18.0,90,0.00,,,0.04,TxWx,2013-05-25 16:13:00,
2013-05-25 11:14:00,81.0,78.0,30.06,SSE,157,16.0,16.0,90,0.00,,,0.04,TxWx,2013-05-25 16:14:00,
2013-05-25 11:15:00,81.0,78.0,30.06,SSE,157,9.0,9.0,90,0.00,,,0.04,TxWx,2013-05-25 16:15:00,
2013-05-25 11:17:00,81.0,78.0,30.06,SSE,157,13.0,13.0,90,0.00,,,0.04,TxWx,2013-05-25 16:17:00,
2013-05-25 11:20:00,81.0,78.0,30.06,SSE,157,8.0,8.0,90,0.00,,,0.04,TxWx,2013-05-25 16:20:00,
2013-05-25 11:21:00,81.0,78.0,30.06,SE,135,10.0,11.0,90,0.00,,,0.04,TxWx,2013-05-25 16:21:00,
2013-05-25 11:22:00,81.0,78.0,30.06,SSE,157,9.0,9.0,90,0.00,,,0.04,TxWx,2013-05-25 16:22:00,
2013-05-25 11:26:00,81.0,78.0,30.06,SE,135,11.0,11.0,91,0.00,,,0.04,TxWx,2013-05-25 16:26:00,
2013-05-25 11:27:00,81.0,78.0,30.06,ESE,112,8.0,9.0,90,0.00,,,0.04,TxWx,2013-05-25 16:27:00,
2013-05-25 11:28:00,81.0,78.0,30.06,SE,135,12.0,14.0,90,0.00,,,0.04,TxWx,2013-05-25 16:28:00,
2013-05-25 11:31:00,81.0,78.0,30.06,SE,135,13.0,13.0,90,0.00,,,0.04,TxWx,2013-05-25 16:31:00,
2013-05-25 11:32:00,81.0,78.0,30.06,SE,135,9.0,11.0,90,0.00,,,0.04,TxWx,2013-05-25 16:32:00,
2013-05-25 11:33:00,81.0,78.0,30.06,South,180,10.0,12.0,90,0.00,,,0.04,TxWx,2013-05-25 16:33:00,
2013-05-25 11:34:00,81.0,77.0,30.06,SE,135,6.0,8.0,89,0.00,,,0.04,TxWx,2013-05-25 16:34:00,
2013-05-25 11:37:00,81.0,77.0,30.06,SE,135,11.0,11.0,89,0.00,,,0.04,TxWx,2013-05-25 16:37:00,
2013-05-25 11:38:00,81.0,77.0,30.06,SE,135,11.0,11.0,89,0.00,,,0.04,TxWx,2013-05-25 16:38:00,
2013-05-25 11:39:00,81.0,77.0,30.06,SSE,157,13.0,13.0,89,0.00,,,0.04,TxWx,2013-05-25 16:39:00,
2013-05-25 11:42:00,81.0,77.0,30.06,ESE,112,9.0,9.0,89,0.00,,,0.04,TxWx,2013-05-25 16:42:00,
2013-05-25 11:44:00,81.0,77.0,30.06,SE,135,6.0,7.0,88,0.00,,,0.04,TxWx,2013-05-25 16:44:00,
2013-05-25 11:45:00,81.0,77.0,30.06,SSE,157,13.0,13.0,89,0.00,,,0.04,TxWx,2013-05-25 16:45:00,
2013-05-25 11:46:00,81.0,77.0,30.06,SE,135,11.0,11.0,88,0.00,,,0.04,TxWx,2013-05-25 16:46:00,
2013-05-25 11:49:00,81.0,77.0,30.06,South,180,14.0,14.0,89,0.00,,,0.04,TxWx,2013-05-25 16:49:00,
2013-05-25 11:50:00,81.0,77.0,30.06,SE,135,8.0,9.0,89,0.00,,,0.04,TxWx,2013-05-25 16:50:00,
2013-05-25 11:52:00,81.0,77.0,30.06,SE,135,13.0,13.0,89,0.00,,,0.04,TxWx,2013-05-25 16:52:00,
2013-05-25 11:55:00,81.0,77.0,30.05,SE,135,12.0,15.0,89,0.00,,,0.04,TxWx,2013-05-25 16:55:00,
2013-05-25 11:56:00,81.0,77.0,30.05,SE,135,8.0,8.0,89,0.00,,,0.04,TxWx,2013-05-25 16:56:00,
2013-05-25 11:58:00,81.0,77.0,30.05,ESE,112,10.0,10.0,89,0.00,,,0.04,TxWx,2013-05-25 16:58:00,
2013-05-25 11:59:00,81.0,77.0,30.05,SSE,157,6.0,7.0,89,0.00,,,0.04,TxWx,2013-05-25 16:59:00,
2013-05-25 12:01:00,81.0,77.0,30.05,SSE,157,13.0,13.0,89,0.00,,,0.04,TxWx,2013-05-25 17:01:00,
2013-05-25 12:05:00,81.0,77.0,30.05,SE,135,14.0,16.0,89,0.00,,,0.04,TxWx,2013-05-25 17:05:00,
2013-05-25 12:06:00,81.0,78.0,30.05,SE,135,13.0,14.0,90,0.00,,,0.04,TxWx,2013-05-25 17:06:00,
2013-05-25 12:07:00,81.0,78.0,30.05,SE,135,10.0,10.0,90,0.00,,,0.04,TxWx,2013-05-25 17:07:00,
2013-05-25 12:11:00,81.0,78.0,30.05,SSE,157,13.0,15.0,90,0.00,,,0.04,TxWx,2013-05-25 17:11:00,
2013-05-25 12:12:00,81.0,78.0,30.05,SSE,157,9.0,10.0,90,0.00,,,0.04,TxWx,2013-05-25 17:12:00,
2013-05-25 12:14:00,81.0,78.0,30.05,SSE,157,16.0,16.0,90,0.00,,,0.04,TxWx,2013-05-25 17:14:00,
2013-05-25 12:17:00,81.0,78.0,30.05,SE,135,9.0,10.0,90,0.00,,,0.04,TxWx,2013-05-25 17:17:00,
2013-05-25 12:19:00,81.0,78.0,30.05,SE,135,8.0,10.0,90,0.00,,,0.04,TxWx,2013-05-25 17:19:00,
2013-05-25 12:20:00,81.0,78.0,30.05,SE,135,16.0,16.0,90,0.00,,,0.04,TxWx,2013-05-25 17:20:00,
2013-05-25 12:23:00,81.0,78.0,30.05,SSE,157,9.0,9.0,90,0.00,,,0.04,TxWx,2013-05-25 17:23:00,
2013-05-25 12:25:00,81.0,78.0,30.04,SE,135,10.0,10.0,91,0.00,,,0.04,TxWx,2013-05-25 17:25:00,
2013-05-25 12:28:00,81.0,78.0,30.04,SSW,202,8.0,10.0,91,0.00,,,0.04,TxWx,2013-05-25 17:28:00,
2013-05-25 12:29:00,81.0,78.0,30.04,SE,135,6.0,6.0,91,0.00,,,0.04,TxWx,2013-05-25 17:29:00,
2013-05-25 12:30:00,81.0,78.0,30.05,SSE,157,13.0,15.0,90,0.00,,,0.04,TxWx,2013-05-25 17:30:00,
2013-05-25 12:31:00,81.0,78.0,30.05,SSE,157,10.0,10.0,90,0.00,,,0.04,TxWx,2013-05-25 17:31:00,
2013-05-25 12:33:00,81.0,78.0,30.05,SE,135,10.0,11.0,90,0.00,,,0.04,TxWx,2013-05-25 17:33:00,
2013-05-25 12:34:00,81.0,78.0,30.05,South,180,11.0,11.0,90,0.00,,,0.04,TxWx,2013-05-25 17:34:00,
2013-05-25 12:36:00,81.0,78.0,30.05,SSE,157,8.0,8.0,90,0.00,,,0.04,TxWx,2013-05-25 17:36:00,
2013-05-25 12:37:00,81.0,78.0,30.05,South,180,11.0,18.0,90,0.00,,,0.04,TxWx,2013-05-25 17:37:00,
2013-05-25 12:38:00,81.0,78.0,30.05,ESE,112,9.0,10.0,90,0.00,,,0.04,TxWx,2013-05-25 17:38:00,
2013-05-25 12:39:00,81.0,78.0,30.05,South,180,6.0,7.0,90,0.00,,,0.04,TxWx,2013-05-25 17:39:00,
2013-05-25 12:41:00,81.0,78.0,30.05,SE,135,11.0,12.0,90,0.00,,,0.04,TxWx,2013-05-25 17:41:00,
2013-05-25 12:42:00,81.0,78.0,30.05,South,180,12.0,13.0,90,0.00,,,0.04,TxWx,2013-05-25 17:42:00,
2013-05-25 12:44:00,81.0,78.0,30.05,SE,135,13.0,13.0,90,0.00,,,0.04,TxWx,2013-05-25 17:44:00,
2013-05-25 12:45:00,81.0,78.0,30.05,ESE,112,16.0,16.0,90,0.00,,,0.04,TxWx,2013-05-25 17:45:00,
2013-05-25 12:47:00,81.0,78.0,30.05,SE,135,11.0,12.0,90,0.00,,,0.04,TxWx,2013-05-25 17:47:00,
2013-05-25 12:48:00,81.0,78.0,30.05,SE,135,11.0,11.0,90,0.00,,,0.04,TxWx,2013-05-25 17:48:00,
2013-05-25 12:49:00,81.0,78.0,30.05,SE,135,8.0,10.0,90,0.00,,,0.04,TxWx,2013-05-25 17:49:00,
2013-05-25 12:50:00,81.0,78.0,30.05,SSE,157,14.0,14.0,90,0.00,,,0.04,TxWx,2013-05-25 17:50:00,
2013-05-25 12:52:00,81.0,78.0,30.05,SE,135,6.0,7.0,90,0.00,,,0.04,TxWx,2013-05-25 17:52:00,
2013-05-25 12:54:00,81.0,78.0,30.05,SE,135,12.0,12.0,90,0.00,,,0.04,TxWx,2013-05-25 17:54:00,
2013-05-25 12:56:00,81.0,78.0,30.05,SSE,157,10.0,11.0,90,0.00,,,0.04,TxWx,2013-05-25 17:56:00,
2013-05-25 12:59:00,80.0,77.0,30.05,South,180,6.0,6.0,91,0.00,,,0.04,TxWx,2013-05-25 17:59:00,
2013-05-25 13:00:00,80.0,77.0,30.05,SSE,157,5.0,6.0,91,0.00,,,0.04,TxWx,2013-05-25 18:00:00,
2013-05-25 13:01:00,80.0,77.0,30.05,SE,135,10.0,10.0,91,0.00,,,0.04,TxWx,2013-05-25 18:01:00,
2013-05-25 13:05:00,80.0,77.0,30.05,SSE,157,14.0,14.0,92,0.00,,,0.04,TxWx,2013-05-25 18:05:00,
2013-05-25 13:06:00,80.0,77.0,30.05,SE,135,11.0,13.0,92,0.00,,,0.04,TxWx,2013-05-25 18:06:00,
2013-05-25 13:07:00,80.0,77.0,30.05,SSE,157,8.0,10.0,92,0.00,,,0.04,TxWx,2013-05-25 18:07:00,
2013-05-25 13:11:00,80.0,78.0,30.05,SSE,157,6.0,8.0,93,0.00,,,0.04,TxWx,2013-05-25 18:11:00,
2013-05-25 13:12:00,80.0,78.0,30.05,SSE,157,11.0,11.0,93,0.00,,,0.04,TxWx,2013-05-25 18:12:00,
2013-05-25 13:17:00,80.0,78.0,30.05,South,180,11.0,12.0,93,0.00,,,0.04,TxWx,2013-05-25 18:17:00,
2013-05-25 13:18:00,80.0,78.0,30.05,SW,225,6.0,6.0,93,0.00,,,0.04,TxWx,2013-05-25 18:18:00,
2013-05-25 13:19:00,80.0,78.0,30.05,SSE,157,10.0,12.0,93,0.00,,,0.04,TxWx,2013-05-25 18:19:00,
2013-05-25 13:23:00,80.0,78.0,30.05,ESE,112,10.0,13.0,93,0.00,,,0.04,TxWx,2013-05-25 18:23:00,
2013-05-25 13:24:00,80.0,78.0,30.05,SSE,157,14.0,14.0,93,0.00,,,0.04,TxWx,2013-05-25 18:24:00,
2013-05-25 13:27:00,80.0,78.0,30.05,SSE,157,4.0,5.0,93,0.00,,,0.04,TxWx,2013-05-25 18:27:00,
2013-05-25 13:29:00,80.0,78.0,30.05,ENE,67,5.0,6.0,93,0.00,,,0.04,TxWx,2013-05-25 18:29:00,
2013-05-25 13:30:00,80.0,78.0,30.05,ESE,112,6.0,7.0,93,0.00,,,0.04,TxWx,2013-05-25 18:30:00,
2013-05-25 13:32:00,80.0,77.0,30.05,SSE,157,10.0,11.0,92,0.00,,,0.04,TxWx,2013-05-25 18:32:00,
2013-05-25 13:34:00,81.0,79.0,30.04,ESE,112,7.0,7.0,93,0.00,,,0.04,TxWx,2013-05-25 18:34:00,
2013-05-25 13:35:00,81.0,78.0,30.05,SSE,157,6.0,6.0,92,0.00,,,0.04,TxWx,2013-05-25 18:35:00,
2013-05-25 13:37:00,81.0,78.0,30.05,SE,135,11.0,13.0,92,0.00,,,0.04,TxWx,2013-05-25 18:37:00,
2013-05-25 13:40:00,81.0,78.0,30.05,SE,135,8.0,8.0,92,0.00,,,0.04,TxWx,2013-05-25 18:40:00,
2013-05-25 13:43:00,81.0,78.0,30.04,SSE,157,9.0,9.0,91,0.00,,,0.04,TxWx,2013-05-25 18:43:00,
2013-05-25 13:45:00,81.0,78.0,30.05,SSE,157,8.0,9.0,91,0.00,,,0.04,TxWx,2013-05-25 18:45:00,
2013-05-25 13:46:00,81.0,78.0,30.04,SE,135,8.0,8.0,91,0.00,,,0.04,TxWx,2013-05-25 18:46:00,
2013-05-25 13:47:00,81.0,78.0,30.04,SE,135,10.0,10.0,91,0.00,,,0.04,TxWx,2013-05-25 18:47:00,
2013-05-25 13:51:00,81.0,78.0,30.04,SE,135,7.0,7.0,91,0.00,,,0.04,TxWx,2013-05-25 18:51:00,
2013-05-25 13:53:00,81.0,78.0,30.04,SSE,157,11.0,13.0,91,0.00,,,0.04,TxWx,2013-05-25 18:53:00,
2013-05-25 13:54:00,81.0,78.0,30.04,SE,135,8.0,10.0,91,0.00,,,0.04,TxWx,2013-05-25 18:54:00,
2013-05-25 13:56:00,81.0,78.0,30.04,SSE,157,10.0,10.0,91,0.00,,,0.04,TxWx,2013-05-25 18:56:00,
2013-05-25 13:58:00,81.0,78.0,30.04,SE,135,10.0,10.0,91,0.00,,,0.04,TxWx,2013-05-25 18:58:00,
2013-05-25 13:59:00,81.0,78.0,30.04,ESE,112,6.0,7.0,90,0.00,,,0.04,TxWx,2013-05-25 18:59:00,
2013-05-25 14:01:00,81.0,78.0,30.04,SE,135,11.0,14.0,90,0.00,,,0.04,TxWx,2013-05-25 19:01:00,
2013-05-25 14:03:00,81.0,78.0,30.03,SE,135,12.0,12.0,91,0.00,,,0.04,TxWx,2013-05-25 19:03:00,
2013-05-25 14:04:00,82.0,79.0,30.03,SSE,157,5.0,8.0,91,0.00,,,0.04,TxWx,2013-05-25 19:04:00,
2013-05-25 14:05:00,81.0,78.0,30.03,SSE,157,14.0,17.0,90,0.00,,,0.04,TxWx,2013-05-25 19:05:00,
2013-05-25 14:07:00,82.0,79.0,30.03,SE,135,6.0,7.0,90,0.00,,,0.04,TxWx,2013-05-25 19:07:00,
2013-05-25 14:09:00,82.0,79.0,30.03,SE,135,16.0,16.0,90,0.00,,,0.04,TxWx,2013-05-25 19:09:00,
2013-05-25 14:10:00,81.0,78.0,30.03,SE,135,15.0,15.0,90,0.00,,,0.04,TxWx,2013-05-25 19:10:00,
2013-05-25 14:13:00,81.0,78.0,30.03,ESE,112,12.0,15.0,90,0.00,,,0.04,TxWx,2013-05-25 19:13:00,
2013-05-25 14:15:00,81.0,78.0,30.03,SSE,157,13.0,15.0,90,0.00,,,0.04,TxWx,2013-05-25 19:15:00,
2013-05-25 14:16:00,82.0,79.0,30.03,SE,135,7.0,10.0,90,0.00,,,0.04,TxWx,2013-05-25 19:16:00,
2013-05-25 14:17:00,81.0,78.0,30.03,SSE,157,15.0,16.0,90,0.00,,,0.04,TxWx,2013-05-25 19:17:00,
2013-05-25 14:18:00,81.0,77.0,30.03,SSE,157,11.0,13.0,89,0.00,,,0.04,TxWx,2013-05-25 19:18:00,
2013-05-25 14:22:00,82.0,79.0,30.03,SE,135,9.0,10.0,90,0.00,,,0.04,TxWx,2013-05-25 19:22:00,
2013-05-25 14:23:00,82.0,78.0,30.03,South,180,10.0,10.0,89,0.00,,,0.04,TxWx,2013-05-25 19:23:00,
2013-05-25 14:24:00,82.0,78.0,30.03,South,180,12.0,12.0,88,0.00,,,0.04,TxWx,2013-05-25 19:24:00,
2013-05-25 14:25:00,82.0,78.0,30.03,SSE,157,13.0,13.0,88,0.00,,,0.04,TxWx,2013-05-25 19:25:00,
2013-05-25 14:27:00,82.0,78.0,30.03,SE,135,5.0,6.0,88,0.00,,,0.04,TxWx,2013-05-25 19:27:00,
2013-05-25 14:28:00,82.0,78.0,30.04,SE,135,9.0,10.0,88,0.00,,,0.04,TxWx,2013-05-25 19:28:00,
2013-05-25 14:29:00,82.0,78.0,30.03,SE,135,14.0,14.0,88,0.00,,,0.04,TxWx,2013-05-25 19:29:00,
2013-05-25 14:30:00,82.0,78.0,30.03,SE,135,8.0,8.0,88,0.00,,,0.04,TxWx,2013-05-25 19:30:00,
2013-05-25 14:33:00,81.0,77.0,30.03,SE,135,8.0,8.0,88,0.00,,,0.04,TxWx,2013-05-25 19:33:00,
2013-05-25 14:34:00,82.0,78.0,30.03,SE,135,7.0,7.0,88,0.00,,,0.04,TxWx,2013-05-25 19:34:00,
2013-05-25 14:36:00,81.0,77.0,30.03,SE,135,10.0,10.0,88,0.00,,,0.04,TxWx,2013-05-25 19:36:00,
2013-05-25 14:37:00,82.0,78.0,30.03,ESE,112,10.0,10.0,88,0.00,,,0.04,TxWx,2013-05-25 19:37:00,
2013-05-25 14:38:00,82.0,78.0,30.03,SE,135,8.0,10.0,88,0.00,,,0.04,TxWx,2013-05-25 19:38:00,
2013-05-25 14:40:00,82.0,78.0,30.03,SE,135,10.0,10.0,88,0.00,,,0.04,TxWx,2013-05-25 19:40:00,
2013-05-25 14:41:00,82.0,78.0,30.03,SSE,157,6.0,8.0,88,0.00,,,0.04,TxWx,2013-05-25 19:41:00,
2013-05-25 14:42:00,82.0,78.0,30.03,SE,135,5.0,5.0,88,0.00,,,0.04,TxWx,2013-05-25 19:42:00,
2013-05-25 14:44:00,82.0,78.0,30.03,SSE,157,8.0,10.0,88,0.00,,,0.04,TxWx,2013-05-25 19:44:00,
2013-05-25 14:45:00,82.0,78.0,30.03,SE,135,8.0,8.0,88,0.00,,,0.04,TxWx,2013-05-25 19:45:00,
2013-05-25 14:46:00,82.0,78.0,30.03,SSW,202,5.0,5.0,88,0.00,,,0.04,TxWx,2013-05-25 19:46:00,
2013-05-25 14:47:00,82.0,78.0,30.03,SE,135,10.0,12.0,88,0.00,,,0.04,TxWx,2013-05-25 19:47:00,
2013-05-25 14:49:00,83.0,79.0,30.03,SSE,157,8.0,8.0,88,0.00,,,0.04,TxWx,2013-05-25 19:49:00,
2013-05-25 14:50:00,82.0,78.0,30.03,SE,135,8.0,9.0,88,0.00,,,0.04,TxWx,2013-05-25 19:50:00,
2013-05-25 14:52:00,82.0,78.0,30.03,SE,135,13.0,13.0,87,0.00,,,0.04,TxWx,2013-05-25 19:52:00,
2013-05-25 14:53:00,82.0,78.0,30.03,SE,135,13.0,13.0,88,0.00,,,0.04,TxWx,2013-05-25 19:53:00,
2013-05-25 14:54:00,82.0,78.0,30.03,SSE,157,13.0,13.0,88,0.00,,,0.04,TxWx,2013-05-25 19:54:00,
2013-05-25 14:56:00,81.0,77.0,30.03,SSE,157,9.0,10.0,88,0.00,,,0.04,TxWx,2013-05-25 19:56:00,
2013-05-25 14:58:00,82.0,78.0,30.03,ESE,112,13.0,13.0,88,0.00,,,0.04,TxWx,2013-05-25 19:58:00,
2013-05-25 14:59:00,82.0,78.0,30.03,SE,135,9.0,10.0,88,0.00,,,0.04,TxWx,2013-05-25 19:59:00,
2013-05-25 15:01:00,81.0,77.0,30.03,SE,135,11.0,13.0,88,0.00,,,0.04,TxWx,2013-05-25 20:01:00,
2013-05-25 15:03:00,82.0,78.0,30.03,SE,135,14.0,14.0,89,0.00,,,0.04,TxWx,2013-05-25 20:03:00,
2013-05-25 15:05:00,82.0,78.0,30.02,SE,135,14.0,14.0,88,0.00,,,0.04,TxWx,2013-05-25 20:05:00,
2013-05-25 15:06:00,82.0,78.0,30.03,SSE,157,9.0,9.0,88,0.00,,,0.04,TxWx,2013-05-25 20:06:00,
2013-05-25 15:08:00,81.0,77.0,30.03,SE,135,12.0,14.0,88,0.00,,,0.04,TxWx,2013-05-25 20:08:00,
2013-05-25 15:10:00,82.0,78.0,30.02,ESE,112,11.0,14.0,89,0.00,,,0.04,TxWx,2013-05-25 20:10:00,
2013-05-25 15:12:00,81.0,77.0,30.03,SE,135,10.0,10.0,89,0.00,,,0.04,TxWx,2013-05-25 20:12:00,
2013-05-25 15:16:00,81.0,77.0,30.02,SSE,157,13.0,13.0,89,0.00,,,0.04,TxWx,2013-05-25 20:16:00,
2013-05-25 15:18:00,81.0,77.0,30.03,SE,135,10.0,10.0,89,0.00,,,0.04,TxWx,2013-05-25 20:18:00,
2013-05-25 15:22:00,81.0,77.0,30.02,SE,135,10.0,10.0,89,0.00,,,0.04,TxWx,2013-05-25 20:22:00,
2013-05-25 15:23:00,82.0,78.0,30.02,SE,135,6.0,9.0,89,0.00,,,0.04,TxWx,2013-05-25 20:23:00,
2013-05-25 15:24:00,81.0,77.0,30.02,SE,135,11.0,13.0,89,0.00,,,0.04,TxWx,2013-05-25 20:24:00,
2013-05-25 15:25:00,81.0,77.0,30.02,South,180,10.0,10.0,89,0.00,,,0.04,TxWx,2013-05-25 20:25:00,
2013-05-25 15:27:00,81.0,77.0,30.02,SE,135,13.0,14.0,89,0.00,,,0.04,TxWx,2013-05-25 20:27:00,
2013-05-25 15:29:00,81.0,77.0,30.02,SE,135,14.0,15.0,89,0.00,,,0.04,TxWx,2013-05-25 20:29:00,
2013-05-25 15:30:00,81.0,77.0,30.02,SE,135,14.0,14.0,89,0.00,,,0.04,TxWx,2013-05-25 20:30:00,
2013-05-25 15:32:00,81.0,77.0,30.02,SE,135,8.0,8.0,89,0.00,,,0.04,TxWx,2013-05-25 20:32:00,
2013-05-25 15:36:00,81.0,77.0,30.02,South,180,8.0,8.0,89,0.00,,,0.04,TxWx,2013-05-25 20:36:00,
2013-05-25 15:37:00,81.0,78.0,30.02,SE,135,11.0,11.0,90,0.00,,,0.04,TxWx,2013-05-25 20:37:00,
2013-05-25 15:38:00,81.0,78.0,30.02,SE,135,14.0,14.0,90,0.00,,,0.04,TxWx,2013-05-25 20:38:00,
2013-05-25 15:42:00,81.0,78.0,30.02,SSE,157,11.0,11.0,90,0.00,,,0.04,TxWx,2013-05-25 20:42:00,
2013-05-25 15:44:00,81.0,78.0,30.02,SE,135,12.0,12.0,90,0.00,,,0.04,TxWx,2013-05-25 20:44:00,
2013-05-25 15:45:00,81.0,78.0,30.02,SE,135,9.0,9.0,90,0.00,,,0.04,TxWx,2013-05-25 20:45:00,
2013-05-25 15:47:00,81.0,78.0,30.02,ESE,112,8.0,10.0,90,0.00,,,0.04,TxWx,2013-05-25 20:47:00,
2013-05-25 15:51:00,81.0,78.0,30.02,SE,135,11.0,12.0,90,0.00,,,0.04,TxWx,2013-05-25 20:51:00,
2013-05-25 15:52:00,81.0,78.0,30.02,SE,135,13.0,13.0,90,0.00,,,0.04,TxWx,2013-05-25 20:52:00,
2013-05-25 15:53:00,81.0,78.0,30.02,SE,135,12.0,13.0,90,0.00,,,0.04,TxWx,2013-05-25 20:53:00,
2013-05-25 15:55:00,81.0,78.0,30.02,SSE,157,8.0,8.0,90,0.00,,,0.04,TxWx,2013-05-25 20:55:00,
2013-05-25 15:56:00,81.0,78.0,30.02,SE,135,13.0,13.0,90,0.00,,,0.04,TxWx,2013-05-25 20:56:00,
2013-05-25 15:57:00,81.0,78.0,30.02,ESE,112,19.0,19.0,90,0.00,,,0.04,TxWx,2013-05-25 20:57:00,
2013-05-25 15:59:00,81.0,78.0,30.02,SE,135,12.0,13.0,90,0.00,,,0.04,TxWx,2013-05-25 20:59:00,
2013-05-25 16:01:00,81.0,78.0,30.01,SE,135,10.0,10.0,90,0.00,,,0.04,TxWx,2013-05-25 21:01:00,
2013-05-25 16:03:00,81.0,78.0,30.01,SSE,157,16.0,16.0,90,0.00,,,0.04,TxWx,2013-05-25 21:03:00,
2013-05-25 16:04:00,81.0,78.0,30.01,ESE,112,8.0,13.0,90,0.00,,,0.04,TxWx,2013-05-25 21:04:00,
2013-05-25 16:06:00,81.0,78.0,30.01,SSE,157,13.0,13.0,90,0.00,,,0.04,TxWx,2013-05-25 21:06:00,
2013-05-25 16:07:00,81.0,78.0,30.01,ESE,112,16.0,16.0,90,0.00,,,0.04,TxWx,2013-05-25 21:07:00,
2013-05-25 16:09:00,81.0,78.0,30.01,South,180,6.0,6.0,90,0.00,,,0.04,TxWx,2013-05-25 21:09:00,
2013-05-25 16:10:00,81.0,78.0,30.01,SE,135,14.0,14.0,90,0.00,,,0.04,TxWx,2013-05-25 21:10:00,
2013-05-25 16:11:00,81.0,78.0,30.01,SE,135,10.0,13.0,90,0.00,,,0.04,TxWx,2013-05-25 21:11:00,
2013-05-25 16:14:00,81.0,78.0,30.01,South,180,12.0,12.0,90,0.00,,,0.04,TxWx,2013-05-25 21:14:00,
2013-05-25 16:16:00,81.0,78.0,30.01,SE,135,6.0,7.0,91,0.00,,,0.04,TxWx,2013-05-25 21:16:00,
2013-05-25 16:17:00,81.0,78.0,30.01,SE,135,6.0,6.0,91,0.00,,,0.04,TxWx,2013-05-25 21:17:00,
2013-05-25 16:18:00,81.0,78.0,30.01,SE,135,6.0,6.0,91,0.00,,,0.04,TxWx,2013-05-25 21:18:00,
2013-05-25 16:19:00,81.0,78.0,30.01,SE,135,7.0,8.0,91,0.00,,,0.04,TxWx,2013-05-25 21:19:00,
2013-05-25 16:21:00,81.0,78.0,30.01,SE,135,12.0,12.0,91,0.00,,,0.04,TxWx,2013-05-25 21:21:00,
2013-05-25 16:23:00,81.0,78.0,30.01,SSE,157,11.0,11.0,91,0.00,,,0.04,TxWx,2013-05-25 21:23:00,
2013-05-25 16:25:00,81.0,78.0,30.01,ESE,112,9.0,11.0,91,0.00,,,0.04,TxWx,2013-05-25 21:25:00,
2013-05-25 16:26:00,81.0,78.0,30.01,ESE,112,11.0,11.0,91,0.00,,,0.04,TxWx,2013-05-25 21:26:00,
2013-05-25 16:28:00,80.0,77.0,30.01,South,180,11.0,13.0,91,0.00,,,0.04,TxWx,2013-05-25 21:28:00,
2013-05-25 16:29:00,80.0,77.0,30.00,SSE,157,10.0,10.0,91,0.00,,,0.04,TxWx,2013-05-25 21:29:00,
2013-05-25 16:31:00,81.0,78.0,30.00,SE,135,11.0,11.0,91,0.00,,,0.04,TxWx,2013-05-25 21:31:00,
2013-05-25 16:32:00,81.0,78.0,30.00,SE,135,7.0,8.0,91,0.00,,,0.04,TxWx,2013-05-25 21:32:00,
2013-05-25 16:36:00,81.0,78.0,30.00,SE,135,8.0,8.0,91,0.00,,,0.04,TxWx,2013-05-25 21:36:00,
2013-05-25 16:37:00,81.0,78.0,30.00,SE,135,14.0,14.0,91,0.00,,,0.04,TxWx,2013-05-25 21:37:00,
2013-05-25 16:38:00,80.0,77.0,29.99,SSE,157,8.0,10.0,91,0.00,,,0.04,TxWx,2013-05-25 21:38:00,
2013-05-25 16:40:00,81.0,78.0,29.99,South,180,6.0,6.0,91,0.00,,,0.04,TxWx,2013-05-25 21:40:00,
2013-05-25 16:42:00,80.0,77.0,30.00,SSE,157,11.0,11.0,91,0.00,,,0.04,TxWx,2013-05-25 21:42:00,
2013-05-25 16:43:00,81.0,78.0,29.99,SE,135,6.0,8.0,91,0.00,,,0.04,TxWx,2013-05-25 21:43:00,
2013-05-25 16:45:00,81.0,78.0,30.00,SSE,157,6.0,7.0,91,0.00,,,0.04,TxWx,2013-05-25 21:45:00,
2013-05-25 16:47:00,81.0,78.0,29.99,SSW,202,10.0,10.0,91,0.00,,,0.04,TxWx,2013-05-25 21:47:00,
2013-05-25 16:49:00,81.0,78.0,30.00,SE,135,11.0,11.0,91,0.00,,,0.04,TxWx,2013-05-25 21:49:00,
2013-05-25 16:50:00,81.0,78.0,29.99,South,180,9.0,10.0,91,0.00,,,0.04,TxWx,2013-05-25 21:50:00,
2013-05-25 16:51:00,81.0,78.0,29.99,East,90,8.0,10.0,91,0.00,,,0.04,TxWx,2013-05-25 21:51:00,
2013-05-25 16:54:00,80.0,77.0,29.99,SE,135,15.0,15.0,91,0.00,,,0.04,TxWx,2013-05-25 21:54:00,
2013-05-25 16:55:00,80.0,77.0,29.99,SE,135,16.0,16.0,91,0.00,,,0.04,TxWx,2013-05-25 21:55:00,
2013-05-25 16:56:00,81.0,78.0,29.99,SE,135,9.0,11.0,91,0.00,,,0.04,TxWx,2013-05-25 21:56:00,
2013-05-25 16:59:00,81.0,78.0,29.99,SE,135,10.0,10.0,91,0.00,,,0.04,TxWx,2013-05-25 21:59:00,
2013-05-25 17:01:00,80.0,77.0,29.99,SSE,157,10.0,11.0,90,0.00,,,0.04,TxWx,2013-05-25 22:01:00,
2013-05-25 17:03:00,81.0,78.0,29.99,SE,135,16.0,16.0,90,0.00,,,0.04,TxWx,2013-05-25 22:03:00,
2013-05-25 17:05:00,81.0,78.0,29.99,SSE,157,10.0,10.0,90,0.00,,,0.04,TxWx,2013-05-25 22:05:00,
2013-05-25 17:06:00,81.0,78.0,29.99,SSE,157,11.0,11.0,90,0.00,,,0.04,TxWx,2013-05-25 22:06:00,
2013-05-25 17:09:00,81.0,78.0,29.99,SE,135,6.0,8.0,90,0.00,,,0.04,TxWx,2013-05-25 22:09:00,
2013-05-25 17:10:00,81.0,78.0,29.99,South,180,10.0,11.0,90,0.00,,,0.04,TxWx,2013-05-25 22:10:00,
2013-05-25 17:12:00,81.0,78.0,29.99,SE,135,10.0,11.0,90,0.00,,,0.04,TxWx,2013-05-25 22:12:00,
2013-05-25 17:13:00,81.0,78.0,29.99,SE,135,5.0,5.0,90,0.00,,,0.04,TxWx,2013-05-25 22:13:00,
2013-05-25 17:15:00,81.0,78.0,29.99,SSE,157,8.0,8.0,90,0.00,,,0.04,TxWx,2013-05-25 22:15:00,
2013-05-25 17:16:00,81.0,77.0,29.99,SE,135,7.0,7.0,89,0.00,,,0.04,TxWx,2013-05-25 22:16:00,
2013-05-25 17:19:00,81.0,77.0,29.99,SSE,157,6.0,7.0,89,0.00,,,0.04,TxWx,2013-05-25 22:19:00,
2013-05-25 17:21:00,82.0,78.0,29.99,SE,135,9.0,9.0,89,0.00,,,0.04,TxWx,2013-05-25 22:21:00,
2013-05-25 17:22:00,81.0,77.0,29.99,SE,135,12.0,13.0,89,0.00,,,0.04,TxWx,2013-05-25 22:22:00,
2013-05-25 17:24:00,81.0,77.0,29.99,SE,135,15.0,16.0,89,0.00,,,0.04,TxWx,2013-05-25 22:24:00,
2013-05-25 17:27:00,81.0,77.0,29.99,ESE,112,13.0,13.0,89,0.00,,,0.04,TxWx,2013-05-25 22:27:00,
2013-05-25 17:28:00,81.0,77.0,29.99,ESE,112,11.0,13.0,89,0.00,,,0.04,TxWx,2013-05-25 22:28:00,
2013-05-25 17:29:00,81.0,77.0,29.99,SSE,157,11.0,12.0,89,0.00,,,0.04,TxWx,2013-05-25 22:29:00,
2013-05-25 17:31:00,81.0,77.0,29.99,SE,135,11.0,12.0,89,0.00,,,0.04,TxWx,2013-05-25 22:31:00,
2013-05-25 17:32:00,81.0,78.0,29.99,SE,135,14.0,14.0,90,0.00,,,0.04,TxWx,2013-05-25 22:32:00,
2013-05-25 17:34:00,81.0,78.0,29.99,SSE,157,15.0,18.0,90,0.00,,,0.04,TxWx,2013-05-25 22:34:00,
2013-05-25 17:36:00,81.0,78.0,29.99,SSE,157,16.0,16.0,90,0.00,,,0.04,TxWx,2013-05-25 22:36:00,
2013-05-25 17:37:00,81.0,78.0,29.99,SE,135,11.0,14.0,90,0.00,,,0.04,TxWx,2013-05-25 22:37:00,
2013-05-25 17:38:00,81.0,78.0,29.99,SE,135,17.0,17.0,90,0.00,,,0.04,TxWx,2013-05-25 22:38:00,
2013-05-25 17:39:00,81.0,78.0,29.99,SSE,157,11.0,11.0,90,0.00,,,0.04,TxWx,2013-05-25 22:39:00,
2013-05-25 17:42:00,80.0,77.0,29.99,SSE,157,18.0,18.0,90,0.00,,,0.04,TxWx,2013-05-25 22:42:00,
2013-05-25 17:43:00,81.0,78.0,29.99,SE,135,10.0,12.0,90,0.00,,,0.04,TxWx,2013-05-25 22:43:00,
2013-05-25 17:44:00,81.0,78.0,29.99,SE,135,14.0,14.0,90,0.00,,,0.04,TxWx,2013-05-25 22:44:00,
2013-05-25 17:45:00,81.0,78.0,29.99,SE,135,14.0,14.0,90,0.00,,,0.04,TxWx,2013-05-25 22:45:00,
2013-05-25 17:48:00,81.0,78.0,29.98,SE,135,6.0,6.0,90,0.00,,,0.04,TxWx,2013-05-25 22:48:00,
2013-05-25 17:50:00,81.0,78.0,29.99,SE,135,13.0,13.0,90,0.00,,,0.04,TxWx,2013-05-25 22:50:00,
2013-05-25 17:51:00,81.0,78.0,29.98,ESE,112,10.0,10.0,90,0.00,,,0.04,TxWx,2013-05-25 22:51:00,
2013-05-25 17:53:00,81.0,78.0,29.98,ESE,112,10.0,10.0,90,0.00,,,0.04,TxWx,2013-05-25 22:53:00,
2013-05-25 17:54:00,81.0,78.0,29.98,SE,135,14.0,14.0,90,0.00,,,0.04,TxWx,2013-05-25 22:54:00,
2013-05-25 17:56:00,81.0,78.0,29.98,East,90,10.0,10.0,90,0.00,,,0.04,TxWx,2013-05-25 22:56:00,
2013-05-25 17:57:00,81.0,78.0,29.98,East,90,10.0,10.0,90,0.00,,,0.04,TxWx,2013-05-25 22:57:00,
2013-05-25 17:58:00,81.0,78.0,29.98,ENE,67,5.0,6.0,90,0.00,,,0.04,TxWx,2013-05-25 22:58:00,
2013-05-25 18:02:00,81.0,77.0,29.98,SSE,157,10.0,10.0,89,0.00,,,0.04,TxWx,2013-05-25 23:02:00,
2013-05-25 18:04:00,81.0,77.0,29.98,ESE,112,8.0,8.0,89,0.00,,,0.04,TxWx,2013-05-25 23:04:00,
2013-05-25 18:05:00,81.0,77.0,29.98,South,180,10.0,11.0,89,0.00,,,0.04,TxWx,2013-05-25 23:05:00,
2013-05-25 18:08:00,81.0,77.0,29.98,SSE,157,6.0,8.0,89,0.00,,,0.04,TxWx,2013-05-25 23:08:00,
2013-05-25 18:09:00,81.0,77.0,29.98,South,180,6.0,7.0,89,0.00,,,0.04,TxWx,2013-05-25 23:09:00,
2013-05-25 18:10:00,81.0,77.0,29.98,SSE,157,8.0,8.0,89,0.00,,,0.04,TxWx,2013-05-25 23:10:00,
2013-05-25 18:11:00,81.0,77.0,29.98,SE,135,9.0,10.0,89,0.00,,,0.04,TxWx,2013-05-25 23:11:00,
2013-05-25 18:14:00,81.0,77.0,29.98,SE,135,9.0,11.0,89,0.00,,,0.04,TxWx,2013-05-25 23:14:00,
2013-05-25 18:15:00,81.0,77.0,29.98,SE,135,7.0,7.0,89,0.00,,,0.04,TxWx,2013-05-25 23:15:00,
2013-05-25 18:18:00,81.0,77.0,29.98,SE,135,13.0,13.0,89,0.00,,,0.04,TxWx,2013-05-25 23:18:00,
2013-05-25 18:19:00,81.0,77.0,29.98,SE,135,10.0,10.0,89,0.00,,,0.04,TxWx,2013-05-25 23:19:00,
2013-05-25 18:21:00,81.0,78.0,29.98,ESE,112,12.0,13.0,90,0.00,,,0.04,TxWx,2013-05-25 23:21:00,
2013-05-25 18:22:00,80.0,77.0,29.98,SE,135,11.0,13.0,90,0.00,,,0.04,TxWx,2013-05-25 23:22:00,
2013-05-25 18:24:00,81.0,78.0,29.99,SE,135,6.0,8.0,90,0.00,,,0.04,TxWx,2013-05-25 23:24:00,
2013-05-25 18:25:00,80.0,77.0,29.99,SE,135,12.0,12.0,90,0.00,,,0.04,TxWx,2013-05-25 23:25:00,
2013-05-25 18:27:00,80.0,77.0,29.99,SE,135,8.0,10.0,90,0.00,,,0.04,TxWx,2013-05-25 23:27:00,
2013-05-25 18:30:00,80.0,77.0,29.99,SE,135,13.0,13.0,90,0.00,,,0.04,TxWx,2013-05-25 23:30:00,
2013-05-25 18:31:00,80.0,77.0,29.99,ESE,112,11.0,11.0,90,0.00,,,0.04,TxWx,2013-05-25 23:31:00,
2013-05-25 18:32:00,80.0,77.0,29.99,SSE,157,11.0,11.0,90,0.00,,,0.04,TxWx,2013-05-25 23:32:00,
2013-05-25 18:35:00,80.0,77.0,29.99,East,90,12.0,13.0,90,0.00,,,0.04,TxWx,2013-05-25 23:35:00,
2013-05-25 18:36:00,80.0,77.0,29.99,SE,135,10.0,11.0,90,0.00,,,0.04,TxWx,2013-05-25 23:36:00,
2013-05-25 18:37:00,80.0,77.0,29.99,SE,135,10.0,10.0,91,0.00,,,0.04,TxWx,2013-05-25 23:37:00,
2013-05-25 18:38:00,80.0,77.0,29.99,SSE,157,12.0,13.0,91,0.00,,,0.04,TxWx,2013-05-25 23:38:00,
2013-05-25 18:41:00,80.0,77.0,29.98,SE,135,8.0,8.0,91,0.00,,,0.04,TxWx,2013-05-25 23:41:00,
2013-05-25 18:42:00,80.0,77.0,29.98,SE,135,13.0,13.0,91,0.00,,,0.04,TxWx,2013-05-25 23:42:00,
2013-05-25 18:45:00,80.0,77.0,29.99,SSE,157,6.0,7.0,91,0.00,,,0.04,TxWx,2013-05-25 23:45:00,
2013-05-25 18:46:00,80.0,77.0,29.99,SE,135,10.0,10.0,91,0.00,,,0.04,TxWx,2013-05-25 23:46:00,
2013-05-25 18:47:00,80.0,77.0,29.99,ESE,112,6.0,7.0,91,0.00,,,0.04,TxWx,2013-05-25 23:47:00,
2013-05-25 18:51:00,80.0,77.0,29.98,SE,135,8.0,11.0,91,0.00,,,0.04,TxWx,2013-05-25 23:51:00,
2013-05-25 18:52:00,80.0,77.0,29.98,SE,135,11.0,11.0,91,0.00,,,0.04,TxWx,2013-05-25 23:52:00,
2013-05-25 18:54:00,80.0,77.0,29.99,ESE,112,6.0,8.0,91,0.00,,,0.04,TxWx,2013-05-25 23:54:00,
2013-05-25 18:55:00,80.0,77.0,29.98,SE,135,6.0,6.0,92,0.00,,,0.04,TxWx,2013-05-25 23:55:00,
2013-05-25 18:57:00,80.0,77.0,29.98,ESE,112,8.0,11.0,91,0.00,,,0.04,TxWx,2013-05-25 23:57:00,
2013-05-25 18:58:00,80.0,77.0,29.98,SSE,157,9.0,10.0,91,0.00,,,0.04,TxWx,2013-05-25 23:58:00,
2013-05-25 18:59:00,80.0,77.0,29.98,South,180,9.0,10.0,91,0.00,,,0.04,TxWx,2013-05-25 23:59:00,
2013-05-25 19:01:00,80.0,77.0,29.98,SE,135,11.0,11.0,91,0.00,,,0.04,TxWx,2013-05-26 00:01:00,
2013-05-25 19:02:00,80.0,77.0,29.98,South,180,8.0,11.0,91,0.00,,,0.04,TxWx,2013-05-26 00:02:00,
2013-05-25 19:04:00,80.0,77.0,29.98,SE,135,11.0,11.0,91,0.00,,,0.04,TxWx,2013-05-26 00:04:00,
2013-05-25 19:06:00,80.0,77.0,29.98,SSE,157,11.0,12.0,91,0.00,,,0.04,TxWx,2013-05-26 00:06:00,
2013-05-25 19:07:00,80.0,77.0,29.98,East,90,11.0,11.0,92,0.00,,,0.04,TxWx,2013-05-26 00:07:00,
2013-05-25 19:09:00,80.0,77.0,29.98,SSE,157,11.0,11.0,92,0.00,,,0.04,TxWx,2013-05-26 00:09:00,
2013-05-25 19:11:00,80.0,77.0,29.98,SE,135,7.0,7.0,92,0.00,,,0.04,TxWx,2013-05-26 00:11:00,
2013-05-25 19:12:00,80.0,77.0,29.98,SE,135,10.0,11.0,92,0.00,,,0.04,TxWx,2013-05-26 00:12:00,
2013-05-25 19:13:00,80.0,77.0,29.98,SSE,157,11.0,11.0,92,0.00,,,0.04,TxWx,2013-05-26 00:13:00,
2013-05-25 19:17:00,80.0,77.0,29.98,SSE,157,10.0,13.0,92,0.00,,,0.04,TxWx,2013-05-26 00:17:00,
2013-05-25 19:18:00,80.0,77.0,29.98,SSE,157,13.0,13.0,92,0.00,,,0.04,TxWx,2013-05-26 00:18:00,
2013-05-25 19:20:00,80.0,77.0,29.98,SE,135,13.0,13.0,92,0.00,,,0.04,TxWx,2013-05-26 00:20:00,
2013-05-25 19:23:00,80.0,77.0,29.98,SSE,157,8.0,9.0,92,0.00,,,0.04,TxWx,2013-05-26 00:23:00,
2013-05-25 19:25:00,80.0,77.0,29.98,South,180,13.0,13.0,92,0.00,,,0.04,TxWx,2013-05-26 00:25:00,
2013-05-25 19:26:00,80.0,77.0,29.98,SE,135,12.0,12.0,92,0.00,,,0.04,TxWx,2013-05-26 00:26:00,
2013-05-25 19:28:00,80.0,77.0,29.98,SE,135,11.0,11.0,92,0.00,,,0.04,TxWx,2013-05-26 00:28:00,
2013-05-25 19:29:00,80.0,77.0,29.98,SSE,157,13.0,14.0,92,0.00,,,0.04,TxWx,2013-05-26 00:29:00,
2013-05-25 19:32:00,80.0,77.0,29.97,SE,135,11.0,11.0,92,0.00,,,0.04,TxWx,2013-05-26 00:32:00,
2013-05-25 19:33:00,80.0,77.0,29.98,SSE,157,11.0,12.0,92,0.00,,,0.04,TxWx,2013-05-26 00:33:00,
2013-05-25 19:35:00,80.0,77.0,29.98,ESE,112,9.0,9.0,92,0.00,,,0.04,TxWx,2013-05-26 00:35:00,
2013-05-25 19:37:00,80.0,77.0,29.97,SSE,157,7.0,7.0,92,0.00,,,0.04,TxWx,2013-05-26 00:37:00,
2013-05-25 19:38:00,80.0,77.0,29.98,SE,135,9.0,11.0,92,0.00,,,0.04,TxWx,2013-05-26 00:38:00,
2013-05-25 19:39:00,80.0,77.0,29.98,SE,135,5.0,5.0,92,0.00,,,0.04,TxWx,2013-05-26 00:39:00,
2013-05-25 19:40:00,80.0,77.0,29.98,South,180,8.0,8.0,92,0.00,,,0.04,TxWx,2013-05-26 00:40:00,
2013-05-25 19:43:00,80.0,77.0,29.98,SE,135,13.0,14.0,92,0.00,,,0.04,TxWx,2013-05-26 00:43:00,
2013-05-25 19:44:00,80.0,77.0,29.98,SE,135,10.0,10.0,92,0.00,,,0.04,TxWx,2013-05-26 00:44:00,
2013-05-25 19:45:00,80.0,77.0,29.98,SSE,157,9.0,9.0,92,0.00,,,0.04,TxWx,2013-05-26 00:45:00,
2013-05-25 19:46:00,80.0,77.0,29.98,ESE,112,14.0,18.0,92,0.00,,,0.04,TxWx,2013-05-26 00:46:00,
2013-05-25 19:48:00,79.0,76.0,29.97,ESE,112,5.0,6.0,92,0.00,,,0.04,TxWx,2013-05-26 00:48:00,
2013-05-25 19:50:00,80.0,77.0,29.97,SE,135,11.0,11.0,92,0.00,,,0.04,TxWx,2013-05-26 00:50:00,
2013-05-25 19:51:00,80.0,77.0,29.98,South,180,9.0,9.0,92,0.00,,,0.04,TxWx,2013-05-26 00:51:00,
2013-05-25 19:52:00,80.0,77.0,29.98,SE,135,8.0,9.0,92,0.00,,,0.04,TxWx,2013-05-26 00:52:00,
2013-05-25 19:53:00,80.0,77.0,29.98,SE,135,9.0,11.0,92,0.00,,,0.04,TxWx,2013-05-26 00:53:00,
2013-05-25 19:54:00,80.0,77.0,29.97,SE,135,18.0,18.0,92,0.00,,,0.04,TxWx,2013-05-26 00:54:00,
2013-05-25 19:56:00,80.0,77.0,29.98,SE,135,12.0,12.0,92,0.00,,,0.04,TxWx,2013-05-26 00:56:00,
2013-05-25 19:57:00,80.0,77.0,29.98,SE,135,14.0,14.0,92,0.00,,,0.04,TxWx,2013-05-26 00:57:00,
2013-05-25 19:59:00,80.0,77.0,29.98,SE,135,7.0,10.0,92,0.00,,,0.04,TxWx,2013-05-26 00:59:00,
2013-05-25 20:02:00,80.0,77.0,29.98,SE,135,8.0,8.0,92,0.00,,,0.04,TxWx,2013-05-26 01:02:00,
2013-05-25 20:04:00,80.0,78.0,29.98,ESE,112,6.0,6.0,93,0.00,,,0.04,TxWx,2013-05-26 01:04:00,
2013-05-25 20:07:00,79.0,76.0,29.98,SE,135,10.0,11.0,92,0.00,,,0.04,TxWx,2013-05-26 01:07:00,
2013-05-25 20:08:00,79.0,76.0,29.98,SE,135,9.0,10.0,92,0.00,,,0.04,TxWx,2013-05-26 01:08:00,
2013-05-25 20:10:00,79.0,76.0,29.98,SE,135,11.0,11.0,92,0.00,,,0.04,TxWx,2013-05-26 01:10:00,
2013-05-25 20:11:00,79.0,76.0,29.98,SE,135,8.0,10.0,92,0.00,,,0.04,TxWx,2013-05-26 01:11:00,
2013-05-25 20:14:00,79.0,76.0,29.98,SSE,157,13.0,13.0,92,0.00,,,0.04,TxWx,2013-05-26 01:14:00,
2013-05-25 20:15:00,80.0,77.0,29.98,SE,135,10.0,10.0,92,0.00,,,0.04,TxWx,2013-05-26 01:15:00,
2013-05-25 20:16:00,80.0,77.0,29.98,SE,135,8.0,8.0,92,0.00,,,0.04,TxWx,2013-05-26 01:16:00,
2013-05-25 20:17:00,79.0,76.0,29.98,SSE,157,13.0,13.0,92,0.00,,,0.04,TxWx,2013-05-26 01:17:00,
2013-05-25 20:19:00,80.0,77.0,29.98,SE,135,14.0,16.0,92,0.00,,,0.04,TxWx,2013-05-26 01:19:00,
2013-05-25 20:20:00,80.0,77.0,29.98,SE,135,10.0,10.0,92,0.00,,,0.04,TxWx,2013-05-26 01:20:00,
2013-05-25 20:22:00,79.0,76.0,29.98,SE,135,13.0,13.0,92,0.00,,,0.04,TxWx,2013-05-26 01:22:00,
2013-05-25 20:24:00,80.0,78.0,29.98,SE,135,11.0,11.0,93,0.00,,,0.04,TxWx,2013-05-26 01:24:00,
2013-05-25 20:25:00,79.0,77.0,29.98,SE,135,11.0,12.0,93,0.00,,,0.04,TxWx,2013-05-26 01:25:00,
2013-05-25 20:26:00,80.0,78.0,29.98,SSE,157,9.0,10.0,93,0.00,,,0.04,TxWx,2013-05-26 01:26:00,
2013-05-25 20:30:00,79.0,77.0,29.98,SSE,157,7.0,7.0,93,0.00,,,0.04,TxWx,2013-05-26 01:30:00,
2013-05-25 20:31:00,79.0,77.0,29.99,SE,135,11.0,14.0,93,0.00,,,0.04,TxWx,2013-05-26 01:31:00,
2013-05-25 20:32:00,79.0,77.0,29.99,South,180,10.0,10.0,93,0.00,,,0.04,TxWx,2013-05-26 01:32:00,
2013-05-25 20:33:00,79.0,77.0,29.99,ESE,112,7.0,8.0,93,0.00,,,0.04,TxWx,2013-05-26 01:33:00,
2013-05-25 20:36:00,79.0,77.0,29.99,SE,135,15.0,16.0,93,0.00,,,0.04,TxWx,2013-05-26 01:36:00,
2013-05-25 20:38:00,79.0,77.0,29.99,SE,135,10.0,11.0,93,0.00,,,0.04,TxWx,2013-05-26 01:38:00,
2013-05-25 20:39:00,79.0,77.0,29.99,SE,135,10.0,10.0,93,0.00,,,0.04,TxWx,2013-05-26 01:39:00,
2013-05-25 20:41:00,79.0,77.0,29.99,SE,135,11.0,12.0,93,0.00,,,0.04,TxWx,2013-05-26 01:41:00,
2013-05-25 20:42:00,80.0,78.0,29.99,SE,135,12.0,12.0,93,0.00,,,0.04,TxWx,2013-05-26 01:42:00,
2013-05-25 20:45:00,79.0,77.0,29.99,ESE,112,14.0,14.0,93,0.00,,,0.04,TxWx,2013-05-26 01:45:00,
2013-05-25 20:46:00,79.0,77.0,29.99,East,90,6.0,7.0,93,0.00,,,0.04,TxWx,2013-05-26 01:46:00,
2013-05-25 20:47:00,79.0,77.0,29.99,SE,135,11.0,11.0,93,0.00,,,0.04,TxWx,2013-05-26 01:47:00,
2013-05-25 20:48:00,79.0,77.0,29.99,ESE,112,9.0,10.0,93,0.00,,,0.04,TxWx,2013-05-26 01:48:00,
2013-05-25 20:50:00,79.0,77.0,29.99,SE,135,13.0,13.0,93,0.00,,,0.04,TxWx,2013-05-26 01:50:00,
2013-05-25 20:51:00,79.0,77.0,29.99,SE,135,9.0,10.0,93,0.00,,,0.04,TxWx,2013-05-26 01:51:00,
2013-05-25 20:52:00,79.0,77.0,29.99,SE,135,6.0,9.0,93,0.00,,,0.04,TxWx,2013-05-26 01:52:00,
2013-05-25 20:54:00,79.0,77.0,29.99,SE,135,16.0,16.0,93,0.00,,,0.04,TxWx,2013-05-26 01:54:00,
2013-05-25 20:57:00,79.0,77.0,30.00,SE,135,8.0,8.0,93,0.00,,,0.04,TxWx,2013-05-26 01:57:00,
2013-05-25 20:58:00,79.0,77.0,30.00,SE,135,14.0,14.0,93,0.00,,,0.04,TxWx,2013-05-26 01:58:00,
2013-05-25 21:01:00,79.0,76.0,30.00,SE,135,16.0,16.0,92,0.00,,,0.04,TxWx,2013-05-26 02:01:00,
2013-05-25 21:02:00,79.0,76.0,29.99,SSE,157,11.0,14.0,92,0.00,,,0.04,TxWx,2013-05-26 02:02:00,
2013-05-25 21:05:00,79.0,76.0,30.00,SE,135,16.0,16.0,92,0.00,,,0.04,TxWx,2013-05-26 02:05:00,
2013-05-25 21:06:00,79.0,76.0,30.00,SE,135,14.0,15.0,92,0.00,,,0.04,TxWx,2013-05-26 02:06:00,
2013-05-25 21:07:00,79.0,76.0,30.00,East,90,5.0,6.0,92,0.00,,,0.04,TxWx,2013-05-26 02:07:00,
2013-05-25 21:10:00,79.0,76.0,29.99,SE,135,13.0,13.0,92,0.00,,,0.04,TxWx,2013-05-26 02:10:00,
2013-05-25 21:12:00,79.0,76.0,29.99,SE,135,6.0,8.0,92,0.00,,,0.04,TxWx,2013-05-26 02:12:00,
2013-05-25 21:13:00,79.0,77.0,29.99,SSE,157,9.0,11.0,93,0.00,,,0.04,TxWx,2013-05-26 02:13:00,
2013-05-25 21:14:00,79.0,77.0,29.99,SSE,157,8.0,8.0,93,0.00,,,0.04,TxWx,2013-05-26 02:14:00,
2013-05-25 21:16:00,79.0,77.0,29.99,East,90,8.0,8.0,93,0.00,,,0.04,TxWx,2013-05-26 02:16:00,
2013-05-25 21:17:00,79.0,77.0,30.00,ESE,112,12.0,12.0,93,0.00,,,0.04,TxWx,2013-05-26 02:17:00,
2013-05-25 21:18:00,79.0,77.0,30.00,SSE,157,11.0,12.0,93,0.00,,,0.04,TxWx,2013-05-26 02:18:00,
2013-05-25 21:22:00,79.0,77.0,30.00,ESE,112,7.0,7.0,93,0.00,,,0.04,TxWx,2013-05-26 02:22:00,
2013-05-25 21:23:00,79.0,77.0,30.00,SE,135,12.0,12.0,93,0.00,,,0.04,TxWx,2013-05-26 02:23:00,
2013-05-25 21:24:00,79.0,77.0,30.00,ESE,112,10.0,11.0,93,0.00,,,0.04,TxWx,2013-05-26 02:24:00,
2013-05-25 21:27:00,79.0,77.0,30.00,SE,135,9.0,9.0,93,0.00,,,0.04,TxWx,2013-05-26 02:27:00,
2013-05-25 21:28:00,79.0,77.0,30.00,SE,135,15.0,15.0,93,0.00,,,0.04,TxWx,2013-05-26 02:28:00,
2013-05-25 21:29:00,79.0,77.0,30.00,SE,135,11.0,12.0,93,0.00,,,0.04,TxWx,2013-05-26 02:29:00,
2013-05-25 21:32:00,79.0,76.0,30.00,South,180,11.0,13.0,92,0.00,,,0.04,TxWx,2013-05-26 02:32:00,
2013-05-25 21:33:00,79.0,76.0,30.00,SE,135,12.0,12.0,92,0.00,,,0.04,TxWx,2013-05-26 02:33:00,
2013-05-25 21:35:00,79.0,76.0,30.00,SE,135,7.0,8.0,92,0.00,,,0.04,TxWx,2013-05-26 02:35:00,
2013-05-25 21:37:00,79.0,76.0,30.00,South,180,14.0,15.0,92,0.00,,,0.04,TxWx,2013-05-26 02:37:00,
2013-05-25 21:39:00,79.0,76.0,29.99,SE,135,6.0,6.0,92,0.00,,,0.04,TxWx,2013-05-26 02:39:00,
2013-05-25 21:40:00,79.0,76.0,30.00,SSE,157,14.0,14.0,92,0.00,,,0.04,TxWx,2013-05-26 02:40:00,
2013-05-25 21:42:00,79.0,76.0,30.00,SSE,157,8.0,8.0,92,0.00,,,0.04,TxWx,2013-05-26 02:42:00,
2013-05-25 21:43:00,79.0,76.0,30.00,SSE,157,6.0,6.0,92,0.00,,,0.04,TxWx,2013-05-26 02:43:00,
2013-05-25 21:44:00,79.0,76.0,30.00,SE,135,10.0,10.0,92,0.00,,,0.04,TxWx,2013-05-26 02:44:00,
2013-05-25 21:45:00,79.0,76.0,30.00,SSE,157,12.0,12.0,92,0.00,,,0.04,TxWx,2013-05-26 02:45:00,
2013-05-25 21:47:00,79.0,76.0,30.00,SE,135,10.0,10.0,92,0.00,,,0.04,TxWx,2013-05-26 02:47:00,
2013-05-25 21:49:00,79.0,76.0,30.00,East,90,10.0,10.0,92,0.00,,,0.04,TxWx,2013-05-26 02:49:00,
2013-05-25 21:50:00,79.0,76.0,30.00,SE,135,12.0,12.0,92,0.00,,,0.04,TxWx,2013-05-26 02:50:00,
2013-05-25 21:51:00,79.0,76.0,30.00,SE,135,11.0,13.0,92,0.00,,,0.04,TxWx,2013-05-26 02:51:00,
2013-05-25 21:53:00,79.0,76.0,30.00,SE,135,14.0,14.0,92,0.00,,,0.04,TxWx,2013-05-26 02:53:00,
2013-05-25 21:54:00,79.0,76.0,30.01,South,180,9.0,10.0,92,0.00,,,0.04,TxWx,2013-05-26 02:54:00,
2013-05-25 21:56:00,79.0,76.0,30.00,SE,135,7.0,7.0,92,0.00,,,0.04,TxWx,2013-05-26 02:56:00,
2013-05-25 21:57:00,79.0,76.0,30.01,SE,135,10.0,10.0,92,0.00,,,0.04,TxWx,2013-05-26 02:57:00,
2013-05-25 22:00:00,79.0,76.0,30.01,SE,135,11.0,11.0,92,0.00,,,0.04,TxWx,2013-05-26 03:00:00,
2013-05-25 22:02:00,79.0,76.0,30.01,ESE,112,15.0,16.0,92,0.00,,,0.04,TxWx,2013-05-26 03:02:00,
2013-05-25 22:03:00,79.0,76.0,30.01,SSE,157,10.0,10.0,92,0.00,,,0.04,TxWx,2013-05-26 03:03:00,
2013-05-25 22:05:00,79.0,76.0,30.00,SE,135,13.0,14.0,92,0.00,,,0.04,TxWx,2013-05-26 03:05:00,
2013-05-25 22:06:00,79.0,76.0,30.00,SE,135,11.0,15.0,92,0.00,,,0.04,TxWx,2013-05-26 03:06:00,
2013-05-25 22:07:00,79.0,76.0,30.00,SE,135,15.0,15.0,92,0.00,,,0.04,TxWx,2013-05-26 03:07:00,
2013-05-25 22:10:00,79.0,76.0,30.00,SSE,157,8.0,8.0,92,0.00,,,0.04,TxWx,2013-05-26 03:10:00,
2013-05-25 22:11:00,79.0,76.0,30.01,SSW,202,7.0,7.0,92,0.00,,,0.04,TxWx,2013-05-26 03:11:00,
2013-05-25 22:12:00,79.0,76.0,30.01,SE,135,7.0,7.0,92,0.00,,,0.04,TxWx,2013-05-26 03:12:00,
2013-05-25 22:14:00,79.0,76.0,30.01,South,180,6.0,6.0,92,0.00,,,0.04,TxWx,2013-05-26 03:14:00,
2013-05-25 22:15:00,79.0,76.0,30.01,SE,135,7.0,7.0,92,0.00,,,0.04,TxWx,2013-05-26 03:15:00,
2013-05-25 22:16:00,79.0,76.0,30.01,SE,135,6.0,8.0,92,0.00,,,0.04,TxWx,2013-05-26 03:16:00,
2013-05-25 22:20:00,79.0,76.0,30.01,SSE,157,8.0,8.0,92,0.00,,,0.04,TxWx,2013-05-26 03:20:00,
2013-05-25 22:21:00,79.0,76.0,30.01,SSE,157,9.0,10.0,92,0.00,,,0.04,TxWx,2013-05-26 03:21:00,
2013-05-25 22:22:00,79.0,76.0,30.01,ESE,112,5.0,6.0,92,0.00,,,0.04,TxWx,2013-05-26 03:22:00,
2013-05-25 22:23:00,79.0,76.0,30.01,South,180,15.0,15.0,92,0.00,,,0.04,TxWx,2013-05-26 03:23:00,
2013-05-25 22:25:00,79.0,77.0,30.01,SSE,157,10.0,10.0,93,0.00,,,0.04,TxWx,2013-05-26 03:25:00,
2013-05-25 22:26:00,79.0,77.0,30.01,South,180,9.0,9.0,93,0.00,,,0.04,TxWx,2013-05-26 03:26:00,
2013-05-25 22:28:00,79.0,77.0,30.02,SSW,202,7.0,8.0,93,0.00,,,0.04,TxWx,2013-05-26 03:28:00,
2013-05-25 22:29:00,79.0,77.0,30.02,SSE,157,7.0,8.0,93,0.00,,,0.04,TxWx,2013-05-26 03:29:00,
2013-05-25 22:31:00,79.0,77.0,30.02,SSE,157,8.0,10.0,93,0.00,,,0.04,TxWx,2013-05-26 03:31:00,
2013-05-25 22:32:00,79.0,77.0,30.02,SSE,157,11.0,11.0,93,0.00,,,0.04,TxWx,2013-05-26 03:32:00,
2013-05-25 22:35:00,79.0,76.0,30.02,East,90,7.0,9.0,92,0.00,,,0.04,TxWx,2013-05-26 03:35:00,
2013-05-25 22:36:00,79.0,76.0,30.02,SE,135,9.0,9.0,92,0.00,,,0.04,TxWx,2013-05-26 03:36:00,
2013-05-25 22:37:00,79.0,76.0,30.02,SSE,157,13.0,14.0,92,0.00,,,0.04,TxWx,2013-05-26 03:37:00,
2013-05-25 22:38:00,79.0,76.0,30.02,SE,135,8.0,8.0,92,0.00,,,0.04,TxWx,2013-05-26 03:38:00,
2013-05-25 22:40:00,79.0,76.0,30.02,South,180,7.0,8.0,92,0.00,,,0.04,TxWx,2013-05-26 03:40:00,
2013-05-25 22:41:00,79.0,76.0,30.02,SSE,157,8.0,8.0,92,0.00,,,0.04,TxWx,2013-05-26 03:41:00,
2013-05-25 22:42:00,79.0,76.0,30.02,SE,135,10.0,10.0,92,0.00,,,0.04,TxWx,2013-05-26 03:42:00,
2013-05-25 22:43:00,79.0,76.0,30.02,SSE,157,5.0,6.0,92,0.00,,,0.04,TxWx,2013-05-26 03:43:00,
2013-05-25 22:46:00,79.0,76.0,30.01,SE,135,8.0,8.0,92,0.00,,,0.04,TxWx,2013-05-26 03:46:00,
2013-05-25 22:47:00,79.0,76.0,30.02,SE,135,7.0,7.0,92,0.00,,,0.04,TxWx,2013-05-26 03:47:00,
2013-05-25 22:49:00,79.0,76.0,30.01,SE,135,13.0,13.0,92,0.00,,,0.04,TxWx,2013-05-26 03:49:00,
2013-05-25 22:50:00,79.0,76.0,30.01,SSE,157,11.0,13.0,92,0.00,,,0.04,TxWx,2013-05-26 03:50:00,
2013-05-25 22:52:00,79.0,76.0,30.01,SSE,157,5.0,5.0,92,0.00,,,0.04,TxWx,2013-05-26 03:52:00,
2013-05-25 22:53:00,79.0,76.0,30.01,SE,135,6.0,6.0,92,0.00,,,0.04,TxWx,2013-05-26 03:53:00,
2013-05-25 22:54:00,79.0,76.0,30.01,SE,135,6.0,6.0,92,0.00,,,0.04,TxWx,2013-05-26 03:54:00,
2013-05-25 22:58:00,79.0,76.0,30.01,SSE,157,13.0,13.0,92,0.00,,,0.04,TxWx,2013-05-26 03:58:00,
2013-05-25 22:59:00,79.0,77.0,30.01,SE,135,12.0,12.0,93,0.00,,,0.04,TxWx,2013-05-26 03:59:00,
2013-05-25 23:00:00,79.0,77.0,30.01,SSE,157,6.0,6.0,93,0.00,,,0.04,TxWx,2013-05-26 04:00:00,
2013-05-25 23:01:00,79.0,77.0,30.01,SE,135,5.0,5.0,93,0.00,,,0.04,TxWx,2013-05-26 04:01:00,
2013-05-25 23:02:00,79.0,77.0,30.01,SE,135,10.0,12.0,93,0.00,,,0.04,TxWx,2013-05-26 04:02:00,
2013-05-25 23:06:00,79.0,77.0,30.01,SE,135,4.0,4.0,93,0.00,,,0.04,TxWx,2013-05-26 04:06:00,
2013-05-25 23:07:00,79.0,77.0,30.01,SE,135,4.0,5.0,93,0.00,,,0.04,TxWx,2013-05-26 04:07:00,
2013-05-25 23:09:00,79.0,77.0,30.01,SE,135,13.0,13.0,93,0.00,,,0.04,TxWx,2013-05-26 04:09:00,
2013-05-25 23:10:00,79.0,77.0,30.01,SE,135,7.0,7.0,93,0.00,,,0.04,TxWx,2013-05-26 04:10:00,
2013-05-25 23:12:00,79.0,77.0,30.01,SSE,157,10.0,11.0,93,0.00,,,0.04,TxWx,2013-05-26 04:12:00,
2013-05-25 23:13:00,79.0,77.0,30.01,SSE,157,5.0,5.0,93,0.00,,,0.04,TxWx,2013-05-26 04:13:00,
2013-05-25 23:14:00,79.0,77.0,30.01,SSE,157,12.0,12.0,93,0.00,,,0.04,TxWx,2013-05-26 04:14:00,
2013-05-25 23:15:00,79.0,77.0,30.01,SSW,202,11.0,11.0,93,0.00,,,0.04,TxWx,2013-05-26 04:15:00,
2013-05-25 23:18:00,79.0,77.0,30.01,SSE,157,16.0,16.0,93,0.00,,,0.04,TxWx,2013-05-26 04:18:00,
2013-05-25 23:20:00,79.0,77.0,30.01,SE,135,10.0,10.0,93,0.00,,,0.04,TxWx,2013-05-26 04:20:00,
2013-05-25 23:21:00,79.0,77.0,30.01,SE,135,11.0,11.0,93,0.00,,,0.04,TxWx,2013-05-26 04:21:00,
2013-05-25 23:23:00,79.0,77.0,30.01,SSE,157,11.0,11.0,93,0.00,,,0.04,TxWx,2013-05-26 04:23:00,
2013-05-25 23:24:00,79.0,77.0,30.01,SE,135,10.0,10.0,93,0.00,,,0.04,TxWx,2013-05-26 04:24:00,
2013-05-25 23:25:00,79.0,77.0,30.01,SSE,157,7.0,7.0,93,0.00,,,0.04,TxWx,2013-05-26 04:25:00,
2013-05-25 23:26:00,79.0,77.0,30.01,SSE,157,9.0,9.0,93,0.00,,,0.04,TxWx,2013-05-26 04:26:00,
2013-05-25 23:27:00,79.0,77.0,30.01,South,180,9.0,9.0,93,0.00,,,0.04,TxWx,2013-05-26 04:27:00,
2013-05-25 23:30:00,79.0,77.0,30.01,ESE,112,9.0,10.0,93,0.00,,,0.04,TxWx,2013-05-26 04:30:00,
2013-05-25 23:31:00,79.0,77.0,30.01,SE,135,14.0,18.0,93,0.00,,,0.04,TxWx,2013-05-26 04:31:00,
2013-05-25 23:35:00,79.0,77.0,30.01,SE,135,6.0,7.0,93,0.00,,,0.04,TxWx,2013-05-26 04:35:00,
2013-05-25 23:36:00,79.0,77.0,30.01,South,180,10.0,11.0,93,0.00,,,0.04,TxWx,2013-05-26 04:36:00,
2013-05-25 23:38:00,79.0,77.0,30.01,SE,135,10.0,11.0,93,0.00,,,0.04,TxWx,2013-05-26 04:38:00,
2013-05-25 23:42:00,79.0,77.0,30.01,SSE,157,9.0,9.0,93,0.00,,,0.04,TxWx,2013-05-26 04:42:00,
2013-05-25 23:43:00,79.0,77.0,30.01,SE,135,8.0,9.0,93,0.00,,,0.04,TxWx,2013-05-26 04:43:00,
2013-05-25 23:44:00,79.0,76.0,30.02,SE,135,10.0,11.0,92,0.00,,,0.04,TxWx,2013-05-26 04:44:00,
2013-05-25 23:45:00,79.0,77.0,30.02,ESE,112,8.0,8.0,93,0.00,,,0.04,TxWx,2013-05-26 04:45:00,
2013-05-25 23:47:00,79.0,77.0,30.01,SE,135,10.0,10.0,93,0.00,,,0.04,TxWx,2013-05-26 04:47:00,
2013-05-25 23:48:00,79.0,76.0,30.01,SSE,157,3.0,5.0,92,0.00,,,0.04,TxWx,2013-05-26 04:48:00,
2013-05-25 23:50:00,79.0,76.0,30.01,SSE,157,13.0,13.0,92,0.00,,,0.04,TxWx,2013-05-26 04:50:00,
2013-05-25 23:51:00,79.0,77.0,30.01,ESE,112,6.0,6.0,93,0.00,,,0.04,TxWx,2013-05-26 04:51:00,
2013-05-25 23:52:00,79.0,77.0,30.01,SE,135,5.0,5.0,93,0.00,,,0.04,TxWx,2013-05-26 04:52:00,
2013-05-25 23:54:00,79.0,77.0,30.01,SE,135,9.0,11.0,93,0.00,,,0.04,TxWx,2013-05-26 04:54:00,
2013-05-25 23:55:00,79.0,77.0,30.01,SSE,157,10.0,10.0,93,0.00,,,0.04,TxWx,2013-05-26 04:55:00,
2013-05-25 23:57:00,79.0,77.0,30.01,SE,135,9.0,11.0,93,0.00,,,0.04,TxWx,2013-05-26 04:57:00,
2013-05-25 23:58:00,79.0,77.0,30.01,ESE,112,10.0,10.0,93,0.00,,,0.04,TxWx,2013-05-26 04:58:00,
2013-05-25 23:59:00,79.0,77.0,30.01,South,180,10.0,13.0,93,0.00,,,0.04,TxWx,2013-05-26 04:59:00,